Wetterdaten: Sonntag, 25.04.2010
Datum Zeit Temp. Innen Temp. Aussen UV X Diff Temp. Feuchte Inne Feuchte Auss Sonnenschein Luftdruck Regen ab 0,1 Wind Sonnenschein Windben
25.04.2010 00:00 19,2 C 12,3 C 0,0 UV-I 0,0 C 38 % 50 % 0 % 1021,0 hPa 0,0 l/m 0,0 km/h (0 Bft) 0 min 0,0 km/h (0 Bft)
25.04.2010 00:02 19,2 C 12,3 C 0,0 UV-I 0,0 C 38 % 50 % 0 % 1021,0 hPa 0,0 l/m 0,0 km/h (0 Bft) 0 min 0,0 km/h (0 Bft)
25.04.2010 00:04 19,2 C 12,3 C 0,0 UV-I 0,0 C 38 % 50 % 0 % 1021,0 hPa 0,0 l/m 0,0 km/h (0 Bft) 0 min 0,0 km/h (0 Bft)
25.04.2010 00:06 19,2 C 12,3 C 0,0 UV-I 0,0 C 38 % 50 % 0 % 1021,0 hPa 0,0 l/m 0,0 km/h (0 Bft) 0 min 0,0 km/h (0 Bft)
25.04.2010 00:08 19,2 C 12,3 C 0,0 UV-I 0,0 C 38 % 50 % 0 % 1021,0 hPa 0,0 l/m 0,0 km/h (0 Bft) 0 min 0,0 km/h (0 Bft)
25.04.2010 00:10 19,2 C 12,3 C 0,0 UV-I 0,0 C 38 % 50 % 0 % 1021,0 hPa 0,0 l/m 0,0 km/h (0 Bft) 0 min 0,0 km/h (0 Bft)
25.04.2010 00:12 19,2 C 12,3 C 0,0 UV-I 0,0 C 38 % 50 % 0 % 1021,2 hPa 0,0 l/m 0,0 km/h (0 Bft) 0 min 0,0 km/h (0 Bft)
25.04.2010 00:14 19,2 C 11,9 C 0,0 UV-I 0,0 C 38 % 52 % 0 % 1021,2 hPa 0,0 l/m 0,0 km/h (0 Bft) 0 min 0,0 km/h (0 Bft)
25.04.2010 00:16 19,1 C 11,9 C 0,0 UV-I 0,0 C 38 % 52 % 0 % 1021,2 hPa 0,0 l/m 0,0 km/h (0 Bft) 0 min 0,0 km/h (0 Bft)
25.04.2010 00:18 19,1 C 11,7 C 0,0 UV-I 0,0 C 38 % 53 % 0 % 1021,2 hPa 0,0 l/m 0,0 km/h (0 Bft) 0 min 0,0 km/h (0 Bft)
25.04.2010 00:20 19,1 C 11,7 C 0,0 UV-I 0,0 C 38 % 53 % 0 % 1021,2 hPa 0,0 l/m 0,0 km/h (0 Bft) 0 min 0,0 km/h (0 Bft)
25.04.2010 00:22 19,1 C 11,6 C 0,0 UV-I 0,0 C 38 % 53 % 0 % 1021,2 hPa 0,0 l/m 0,0 km/h (0 Bft) 0 min 0,0 km/h (0 Bft)
25.04.2010 00:24 19,1 C 11,6 C 0,0 UV-I 0,0 C 38 % 54 % 0 % 1021,2 hPa 0,0 l/m 0,0 km/h (0 Bft) 0 min 0,0 km/h (0 Bft)
25.04.2010 00:26 19,1 C 11,6 C 0,0 UV-I 0,0 C 38 % 54 % 0 % 1021,2 hPa 0,0 l/m 0,0 km/h (0 Bft) 0 min 0,0 km/h (0 Bft)
25.04.2010 00:28 19,1 C 11,5 C 0,0 UV-I 0,0 C 38 % 55 % 0 % 1021,2 hPa 0,0 l/m 0,0 km/h (0 Bft) 0 min 0,0 km/h (0 Bft)
25.04.2010 00:30 19,1 C 11,5 C 0,0 UV-I 0,0 C 38 % 55 % 0 % 1021,2 hPa 0,0 l/m 0,0 km/h (0 Bft) 0 min 0,0 km/h (0 Bft)
25.04.2010 00:32 19,0 C 11,4 C 0,0 UV-I 0,0 C 38 % 55 % 0 % 1021,1 hPa 0,0 l/m 0,0 km/h (0 Bft) 0 min 0,0 km/h (0 Bft)
25.04.2010 00:34 19,1 C 11,3 C 0,0 UV-I 0,0 C 38 % 54 % 0 % 1021,1 hPa 0,0 l/m 0,0 km/h (0 Bft) 0 min 0,0 km/h (0 Bft)
25.04.2010 00:36 19,0 C 11,2 C 0,0 UV-I 0,0 C 38 % 55 % 0 % 1021,1 hPa 0,0 l/m 0,0 km/h (0 Bft) 0 min 0,0 km/h (0 Bft)
25.04.2010 00:38 19,0 C 11,2 C 0,0 UV-I 0,0 C 38 % 55 % 0 % 1021,1 hPa 0,0 l/m 0,0 km/h (0 Bft) 0 min 0,0 km/h (0 Bft)
25.04.2010 00:40 19,0 C 11,2 C 0,0 UV-I 0,0 C 38 % 55 % 0 % 1021,1 hPa 0,0 l/m 0,0 km/h (0 Bft) 0 min 0,0 km/h (0 Bft)
25.04.2010 00:42 19,0 C 11,2 C 0,0 UV-I 0,0 C 38 % 55 % 0 % 1021,1 hPa 0,0 l/m 0,0 km/h (0 Bft) 0 min 0,0 km/h (0 Bft)
25.04.2010 00:44 19,0 C 11,1 C 0,0 UV-I 0,0 C 38 % 55 % 0 % 1021,1 hPa 0,0 l/m 0,0 km/h (0 Bft) 0 min 0,0 km/h (0 Bft)
25.04.2010 00:46 19,0 C 11,0 C 0,0 UV-I 0,0 C 38 % 55 % 0 % 1021,1 hPa 0,0 l/m 0,0 km/h (0 Bft) 0 min 0,0 km/h (0 Bft)
25.04.2010 00:48 19,0 C 11,1 C 0,0 UV-I 0,0 C 38 % 56 % 0 % 1021,1 hPa 0,0 l/m 0,0 km/h (0 Bft) 0 min 0,0 km/h (0 Bft)
25.04.2010 00:50 19,0 C 10,9 C 0,0 UV-I 0,0 C 38 % 56 % 0 % 1021,1 hPa 0,0 l/m 0,0 km/h (0 Bft) 0 min 0,0 km/h (0 Bft)
25.04.2010 00:52 19,0 C 10,9 C 0,0 UV-I 0,0 C 38 % 56 % 0 % 1021,1 hPa 0,0 l/m 0,0 km/h (0 Bft) 0 min 0,0 km/h (0 Bft)
25.04.2010 00:56 19,0 C 10,8 C 0,0 UV-I 0,0 C 38 % 57 % 0 % 1021,1 hPa 0,0 l/m 0,0 km/h (0 Bft) 0 min 0,0 km/h (0 Bft)
25.04.2010 00:58 18,9 C 10,7 C 0,0 UV-I 0,0 C 39 % 57 % 0 % 1021,1 hPa 0,0 l/m 0,0 km/h (0 Bft) 0 min 0,0 km/h (0 Bft)
25.04.2010 01:00 19,0 C 10,7 C 0,0 UV-I 0,0 C 38 % 57 % 0 % 1021,1 hPa 0,0 l/m 0,0 km/h (0 Bft) 0 min 0,0 km/h (0 Bft)
25.04.2010 01:02 18,9 C 10,7 C 0,0 UV-I 0,0 C 39 % 58 % 0 % 1021,1 hPa 0,0 l/m 0,0 km/h (0 Bft) 0 min 0,0 km/h (0 Bft)
25.04.2010 01:04 18,9 C 10,7 C 0,0 UV-I 0,0 C 39 % 58 % 0 % 1021,1 hPa 0,0 l/m 0,0 km/h (0 Bft) 0 min 0,0 km/h (0 Bft)
25.04.2010 01:06 18,9 C 10,5 C 0,0 UV-I 0,0 C 39 % 57 % 0 % 1021,1 hPa 0,0 l/m 0,0 km/h (0 Bft) 0 min 0,0 km/h (0 Bft)
25.04.2010 01:08 18,9 C 10,5 C 0,0 UV-I 0,0 C 39 % 58 % 0 % 1021,1 hPa 0,0 l/m 0,0 km/h (0 Bft) 0 min 0,0 km/h (0 Bft)
25.04.2010 01:10 18,9 C 10,5 C 0,0 UV-I 0,0 C 39 % 58 % 0 % 1021,1 hPa 0,0 l/m 0,0 km/h (0 Bft) 0 min 0,0 km/h (0 Bft)
25.04.2010 01:12 18,9 C 10,4 C 0,0 UV-I 0,0 C 39 % 58 % 0 % 1021,3 hPa 0,0 l/m 0,0 km/h (0 Bft) 0 min 0,0 km/h (0 Bft)
25.04.2010 01:14 18,8 C 10,3 C 0,0 UV-I 0,0 C 39 % 59 % 0 % 1021,3 hPa 0,0 l/m 0,0 km/h (0 Bft) 0 min 0,0 km/h (0 Bft)
25.04.2010 01:16 18,8 C 10,2 C 0,0 UV-I 0,0 C 39 % 59 % 0 % 1021,3 hPa 0,0 l/m 0,0 km/h (0 Bft) 0 min 0,0 km/h (0 Bft)
25.04.2010 01:18 18,8 C 10,3 C 0,0 UV-I 0,0 C 39 % 59 % 0 % 1021,3 hPa 0,0 l/m 0,0 km/h (0 Bft) 0 min 0,0 km/h (0 Bft)
25.04.2010 01:22 18,8 C 10,1 C 0,0 UV-I 0,0 C 39 % 60 % 0 % 1021,3 hPa 0,0 l/m 0,0 km/h (0 Bft) 0 min 0,0 km/h (0 Bft)
25.04.2010 01:24 18,8 C 10,0 C 0,0 UV-I 0,0 C 39 % 61 % 0 % 1021,3 hPa 0,0 l/m 0,0 km/h (0 Bft) 0 min 0,0 km/h (0 Bft)
25.04.2010 01:26 18,8 C 10,0 C 0,0 UV-I 0,0 C 39 % 61 % 0 % 1021,3 hPa 0,0 l/m 0,0 km/h (0 Bft) 0 min 0,0 km/h (0 Bft)
25.04.2010 01:28 18,8 C 10,0 C 0,0 UV-I 0,0 C 39 % 61 % 0 % 1021,3 hPa 0,0 l/m 0,0 km/h (0 Bft) 0 min 0,0 km/h (0 Bft)
25.04.2010 01:30 18,8 C 9,9 C 0,0 UV-I 0,0 C 39 % 61 % 0 % 1021,3 hPa 0,0 l/m 0,0 km/h (0 Bft) 0 min 0,0 km/h (0 Bft)
25.04.2010 01:32 18,8 C 9,9 C 0,0 UV-I 0,0 C 39 % 61 % 0 % 1021,1 hPa 0,0 l/m 0,0 km/h (0 Bft) 0 min 0,0 km/h (0 Bft)
25.04.2010 01:34 18,8 C 9,8 C 0,0 UV-I 0,0 C 39 % 61 % 0 % 1021,1 hPa 0,0 l/m 0,0 km/h (0 Bft) 0 min 0,0 km/h (0 Bft)
25.04.2010 01:36 18,8 C 9,8 C 0,0 UV-I 0,0 C 39 % 61 % 0 % 1021,1 hPa 0,0 l/m 0,0 km/h (0 Bft) 0 min 0,0 km/h (0 Bft)
25.04.2010 01:38 18,8 C 9,7 C 0,0 UV-I 0,0 C 39 % 61 % 0 % 1021,1 hPa 0,0 l/m 0,0 km/h (0 Bft) 0 min 0,0 km/h (0 Bft)
25.04.2010 01:40 18,7 C 9,6 C 0,0 UV-I 0,0 C 39 % 61 % 0 % 1021,1 hPa 0,0 l/m 0,0 km/h (0 Bft) 0 min 0,0 km/h (0 Bft)
25.04.2010 01:42 18,7 C 9,6 C 0,0 UV-I 0,0 C 39 % 62 % 0 % 1021,1 hPa 0,0 l/m 0,0 km/h (0 Bft) 0 min 0,0 km/h (0 Bft)
25.04.2010 01:44 18,7 C 9,5 C 0,0 UV-I 0,0 C 39 % 62 % 0 % 1021,1 hPa 0,0 l/m 0,0 km/h (0 Bft) 0 min 0,0 km/h (0 Bft)
25.04.2010 01:46 18,7 C 9,5 C 0,0 UV-I 0,0 C 39 % 62 % 0 % 1021,1 hPa 0,0 l/m 0,0 km/h (0 Bft) 0 min 0,0 km/h (0 Bft)
25.04.2010 01:48 18,7 C 9,5 C 0,0 UV-I 0,0 C 39 % 62 % 0 % 1021,1 hPa 0,0 l/m 0,0 km/h (0 Bft) 0 min 0,0 km/h (0 Bft)
25.04.2010 01:50 18,6 C 9,5 C 0,0 UV-I 0,0 C 39 % 63 % 0 % 1021,1 hPa 0,0 l/m 0,0 km/h (0 Bft) 0 min 0,0 km/h (0 Bft)
25.04.2010 01:52 18,6 C 9,3 C 0,0 UV-I 0,0 C 39 % 63 % 0 % 1020,9 hPa 0,0 l/m 0,0 km/h (0 Bft) 0 min 0,0 km/h (0 Bft)
25.04.2010 01:54 18,6 C 9,3 C 0,0 UV-I 0,0 C 39 % 63 % 0 % 1020,9 hPa 0,0 l/m 0,0 km/h (0 Bft) 0 min 0,0 km/h (0 Bft)
25.04.2010 01:56 18,6 C 9,2 C 0,0 UV-I 0,0 C 39 % 64 % 0 % 1020,9 hPa 0,0 l/m 0,0 km/h (0 Bft) 0 min 0,0 km/h (0 Bft)
25.04.2010 01:58 18,6 C 9,2 C 0,0 UV-I 0,0 C 39 % 64 % 0 % 1020,9 hPa 0,0 l/m 0,0 km/h (0 Bft) 0 min 0,0 km/h (0 Bft)
25.04.2010 02:00 18,6 C 9,2 C 0,0 UV-I 0,0 C 39 % 64 % 0 % 1020,9 hPa 0,0 l/m 0,0 km/h (0 Bft) 0 min 0,0 km/h (0 Bft)
25.04.2010 02:02 18,5 C 9,1 C 0,0 UV-I 0,0 C 39 % 64 % 0 % 1020,9 hPa 0,0 l/m 0,0 km/h (0 Bft) 0 min 0,0 km/h (0 Bft)
25.04.2010 02:06 18,5 C 9,1 C 0,0 UV-I 0,0 C 40 % 64 % 0 % 1020,9 hPa 0,0 l/m 0,0 km/h (0 Bft) 0 min 0,0 km/h (0 Bft)
25.04.2010 02:08 18,5 C 9,1 C 0,0 UV-I 0,0 C 40 % 64 % 0 % 1020,9 hPa 0,0 l/m 0,0 km/h (0 Bft) 0 min 0,0 km/h (0 Bft)
25.04.2010 02:10 18,5 C 8,9 C 0,0 UV-I 0,0 C 40 % 64 % 0 % 1020,9 hPa 0,0 l/m 0,0 km/h (0 Bft) 0 min 0,0 km/h (0 Bft)
25.04.2010 02:12 18,5 C 8,9 C 0,0 UV-I 0,0 C 40 % 65 % 0 % 1021,4 hPa 0,0 l/m 0,0 km/h (0 Bft) 0 min 0,0 km/h (0 Bft)
25.04.2010 02:14 18,5 C 8,9 C 0,0 UV-I 0,0 C 40 % 65 % 0 % 1021,4 hPa 0,0 l/m 0,0 km/h (0 Bft) 0 min 0,0 km/h (0 Bft)
25.04.2010 02:16 18,4 C 8,8 C 0,0 UV-I 0,0 C 40 % 65 % 0 % 1021,4 hPa 0,0 l/m 0,0 km/h (0 Bft) 0 min 0,0 km/h (0 Bft)
25.04.2010 02:18 18,4 C 8,9 C 0,0 UV-I 0,0 C 40 % 65 % 0 % 1021,4 hPa 0,0 l/m 0,0 km/h (0 Bft) 0 min 0,0 km/h (0 Bft)
25.04.2010 02:20 18,4 C 8,8 C 0,0 UV-I 0,0 C 40 % 66 % 0 % 1021,4 hPa 0,0 l/m 0,0 km/h (0 Bft) 0 min 0,0 km/h (0 Bft)
25.04.2010 02:22 18,4 C 8,7 C 0,0 UV-I 0,0 C 40 % 66 % 0 % 1021,4 hPa 0,0 l/m 0,0 km/h (0 Bft) 0 min 0,0 km/h (0 Bft)
25.04.2010 02:24 18,4 C 8,6 C 0,0 UV-I 0,0 C 40 % 66 % 0 % 1021,4 hPa 0,0 l/m 0,0 km/h (0 Bft) 0 min 0,0 km/h (0 Bft)
25.04.2010 02:26 18,4 C 8,7 C 0,0 UV-I 0,0 C 40 % 67 % 0 % 1021,4 hPa 0,0 l/m 0,0 km/h (0 Bft) 0 min 0,0 km/h (0 Bft)
25.04.2010 02:28 18,4 C 8,6 C 0,0 UV-I 0,0 C 40 % 67 % 0 % 1021,4 hPa 0,0 l/m 0,0 km/h (0 Bft) 0 min 0,0 km/h (0 Bft)
25.04.2010 02:30 18,4 C 8,5 C 0,0 UV-I 0,0 C 40 % 67 % 0 % 1021,4 hPa 0,0 l/m 0,0 km/h (0 Bft) 0 min 0,0 km/h (0 Bft)
25.04.2010 02:32 18,4 C 8,4 C 0,0 UV-I 0,0 C 40 % 67 % 0 % 1020,8 hPa 0,0 l/m 0,0 km/h (0 Bft) 0 min 0,0 km/h (0 Bft)
25.04.2010 02:34 18,2 C 8,4 C 0,0 UV-I 0,0 C 40 % 67 % 0 % 1020,8 hPa 0,0 l/m 0,0 km/h (0 Bft) 0 min 0,0 km/h (0 Bft)
25.04.2010 02:36 18,4 C 8,5 C 0,0 UV-I 0,0 C 40 % 67 % 0 % 1020,8 hPa 0,0 l/m 0,0 km/h (0 Bft) 0 min 0,0 km/h (0 Bft)
25.04.2010 02:38 18,2 C 8,4 C 0,0 UV-I 0,0 C 40 % 68 % 0 % 1020,8 hPa 0,0 l/m 0,0 km/h (0 Bft) 0 min 0,0 km/h (0 Bft)
25.04.2010 02:40 18,2 C 8,3 C 0,0 UV-I 0,0 C 40 % 68 % 0 % 1020,8 hPa 0,0 l/m 0,0 km/h (0 Bft) 0 min 0,0 km/h (0 Bft)
25.04.2010 02:42 18,3 C 8,3 C 0,0 UV-I 0,0 C 40 % 68 % 0 % 1020,8 hPa 0,0 l/m 0,0 km/h (0 Bft) 0 min 0,0 km/h (0 Bft)
25.04.2010 02:44 18,3 C 8,2 C 0,0 UV-I 0,0 C 40 % 69 % 0 % 1020,8 hPa 0,0 l/m 0,0 km/h (0 Bft) 0 min 0,0 km/h (0 Bft)
25.04.2010 02:46 18,3 C 8,3 C 0,0 UV-I 0,0 C 40 % 69 % 0 % 1020,8 hPa 0,0 l/m 0,0 km/h (0 Bft) 0 min 0,0 km/h (0 Bft)
25.04.2010 02:48 18,2 C 8,2 C 0,0 UV-I 0,0 C 40 % 69 % 0 % 1020,8 hPa 0,0 l/m 0,0 km/h (0 Bft) 0 min 0,0 km/h (0 Bft)
25.04.2010 02:50 18,3 C 8,1 C 0,0 UV-I 0,0 C 40 % 69 % 0 % 1020,8 hPa 0,0 l/m 0,0 km/h (0 Bft) 0 min 0,0 km/h (0 Bft)
25.04.2010 02:52 18,3 C 8,1 C 0,0 UV-I 0,0 C 40 % 69 % 0 % 1020,9 hPa 0,0 l/m 0,0 km/h (0 Bft) 0 min 0,0 km/h (0 Bft)
25.04.2010 02:54 18,2 C 8,0 C 0,0 UV-I 0,0 C 40 % 70 % 0 % 1020,9 hPa 0,0 l/m 0,0 km/h (0 Bft) 0 min 0,0 km/h (0 Bft)
25.04.2010 02:56 18,2 C 8,1 C 0,0 UV-I 0,0 C 40 % 70 % 0 % 1020,9 hPa 0,0 l/m 0,0 km/h (0 Bft) 0 min 0,0 km/h (0 Bft)
25.04.2010 02:58 18,2 C 8,0 C 0,0 UV-I 0,0 C 40 % 70 % 0 % 1020,9 hPa 0,0 l/m 0,0 km/h (0 Bft) 0 min 0,0 km/h (0 Bft)
25.04.2010 03:00 18,2 C 7,9 C 0,0 UV-I 0,0 C 40 % 70 % 0 % 1020,9 hPa 0,0 l/m 0,0 km/h (0 Bft) 0 min 0,0 km/h (0 Bft)
25.04.2010 03:02 18,2 C 7,9 C 0,0 UV-I 0,0 C 40 % 70 % 0 % 1020,9 hPa 0,0 l/m 0,0 km/h (0 Bft) 0 min 0,0 km/h (0 Bft)
25.04.2010 03:04 18,2 C 7,9 C 0,0 UV-I 0,0 C 41 % 70 % 0 % 1020,9 hPa 0,0 l/m 0,0 km/h (0 Bft) 0 min 0,0 km/h (0 Bft)
25.04.2010 03:06 18,2 C 7,9 C 0,0 UV-I 0,0 C 41 % 71 % 0 % 1020,9 hPa 0,0 l/m 0,0 km/h (0 Bft) 0 min 0,0 km/h (0 Bft)
25.04.2010 03:08 18,2 C 7,9 C 0,0 UV-I 0,0 C 41 % 71 % 0 % 1020,9 hPa 0,0 l/m 0,0 km/h (0 Bft) 0 min 0,0 km/h (0 Bft)
25.04.2010 03:10 18,1 C 7,7 C 0,0 UV-I 0,0 C 41 % 71 % 0 % 1020,9 hPa 0,0 l/m 0,0 km/h (0 Bft) 0 min 0,0 km/h (0 Bft)
25.04.2010 03:12 18,1 C 7,7 C 0,0 UV-I 0,0 C 41 % 71 % 0 % 1020,7 hPa 0,0 l/m 0,0 km/h (0 Bft) 0 min 0,0 km/h (0 Bft)
25.04.2010 03:14 18,1 C 7,6 C 0,0 UV-I 0,0 C 41 % 71 % 0 % 1020,7 hPa 0,0 l/m 0,0 km/h (0 Bft) 0 min 0,0 km/h (0 Bft)
25.04.2010 03:16 18,1 C 7,6 C 0,0 UV-I 0,0 C 41 % 71 % 0 % 1020,7 hPa 0,0 l/m 0,0 km/h (0 Bft) 0 min 0,0 km/h (0 Bft)
25.04.2010 03:18 18,1 C 7,7 C 0,0 UV-I 0,0 C 41 % 72 % 0 % 1020,7 hPa 0,0 l/m 0,0 km/h (0 Bft) 0 min 0,0 km/h (0 Bft)
25.04.2010 03:20 18,1 C 7,6 C 0,0 UV-I 0,0 C 41 % 72 % 0 % 1020,7 hPa 0,0 l/m 0,0 km/h (0 Bft) 0 min 0,0 km/h (0 Bft)
25.04.2010 03:22 18,1 C 7,6 C 0,0 UV-I 0,0 C 41 % 72 % 0 % 1020,7 hPa 0,0 l/m 0,0 km/h (0 Bft) 0 min 0,0 km/h (0 Bft)
25.04.2010 03:24 18,1 C 7,5 C 0,0 UV-I 0,0 C 41 % 72 % 0 % 1020,7 hPa 0,0 l/m 0,0 km/h (0 Bft) 0 min 0,0 km/h (0 Bft)
25.04.2010 03:26 18,1 C 7,5 C 0,0 UV-I 0,0 C 41 % 73 % 0 % 1020,7 hPa 0,0 l/m 0,0 km/h (0 Bft) 0 min 0,0 km/h (0 Bft)
25.04.2010 03:28 18,0 C 7,4 C 0,0 UV-I 0,0 C 41 % 73 % 0 % 1020,7 hPa 0,0 l/m 0,0 km/h (0 Bft) 0 min 0,0 km/h (0 Bft)
25.04.2010 03:30 18,0 C 7,5 C 0,0 UV-I 0,0 C 41 % 73 % 0 % 1020,7 hPa 0,0 l/m 0,0 km/h (0 Bft) 0 min 0,0 km/h (0 Bft)
25.04.2010 03:32 18,0 C 7,5 C 0,0 UV-I 0,0 C 41 % 73 % 0 % 1020,6 hPa 0,0 l/m 0,0 km/h (0 Bft) 0 min 0,0 km/h (0 Bft)
25.04.2010 03:34 18,0 C 7,3 C 0,0 UV-I 0,0 C 41 % 73 % 0 % 1020,6 hPa 0,0 l/m 0,0 km/h (0 Bft) 0 min 0,0 km/h (0 Bft)
25.04.2010 03:36 18,0 C 7,3 C 0,0 UV-I 0,0 C 41 % 73 % 0 % 1020,6 hPa 0,0 l/m 0,0 km/h (0 Bft) 0 min 0,0 km/h (0 Bft)
25.04.2010 03:38 18,0 C 7,3 C 0,0 UV-I 0,0 C 41 % 74 % 0 % 1020,6 hPa 0,0 l/m 0,0 km/h (0 Bft) 0 min 0,0 km/h (0 Bft)
25.04.2010 03:40 18,0 C 7,2 C 0,0 UV-I 0,0 C 41 % 73 % 0 % 1020,6 hPa 0,0 l/m 0,0 km/h (0 Bft) 0 min 0,0 km/h (0 Bft)
25.04.2010 03:42 18,0 C 7,2 C 0,0 UV-I 0,0 C 41 % 73 % 0 % 1020,6 hPa 0,0 l/m 0,0 km/h (0 Bft) 0 min 0,0 km/h (0 Bft)
25.04.2010 03:44 18,0 C 7,2 C 0,0 UV-I 0,0 C 41 % 74 % 0 % 1020,6 hPa 0,0 l/m 0,0 km/h (0 Bft) 0 min 0,0 km/h (0 Bft)
25.04.2010 03:46 18,0 C 7,2 C 0,0 UV-I 0,0 C 41 % 74 % 0 % 1020,6 hPa 0,0 l/m 0,0 km/h (0 Bft) 0 min 0,0 km/h (0 Bft)
25.04.2010 03:48 18,0 C 7,1 C 0,0 UV-I 0,0 C 41 % 74 % 0 % 1020,6 hPa 0,0 l/m 0,0 km/h (0 Bft) 0 min 0,0 km/h (0 Bft)
25.04.2010 03:50 18,0 C 7,1 C 0,0 UV-I 0,0 C 41 % 74 % 0 % 1020,6 hPa 0,0 l/m 0,0 km/h (0 Bft) 0 min 0,0 km/h (0 Bft)
25.04.2010 03:52 18,0 C 7,0 C 0,0 UV-I 0,0 C 41 % 74 % 0 % 1020,7 hPa 0,0 l/m 0,0 km/h (0 Bft) 0 min 0,0 km/h (0 Bft)
25.04.2010 03:54 18,0 C 7,0 C 0,0 UV-I 0,0 C 41 % 74 % 0 % 1020,7 hPa 0,0 l/m 0,0 km/h (0 Bft) 0 min 0,0 km/h (0 Bft)
25.04.2010 03:56 18,0 C 7,1 C 0,0 UV-I 0,0 C 41 % 74 % 0 % 1020,7 hPa 0,0 l/m 0,0 km/h (0 Bft) 0 min 0,0 km/h (0 Bft)
25.04.2010 03:58 17,9 C 7,1 C 0,0 UV-I 0,0 C 41 % 74 % 0 % 1020,7 hPa 0,0 l/m 0,0 km/h (0 Bft) 0 min 0,0 km/h (0 Bft)
25.04.2010 04:00 18,0 C 7,1 C 0,0 UV-I 0,0 C 41 % 74 % 0 % 1020,7 hPa 0,0 l/m 0,0 km/h (0 Bft) 0 min 0,0 km/h (0 Bft)
25.04.2010 04:02 17,9 C 7,0 C 0,0 UV-I 0,0 C 41 % 74 % 0 % 1020,7 hPa 0,0 l/m 0,0 km/h (0 Bft) 0 min 0,0 km/h (0 Bft)
25.04.2010 04:04 17,9 C 7,0 C 0,0 UV-I 0,0 C 41 % 74 % 0 % 1020,7 hPa 0,0 l/m 0,0 km/h (0 Bft) 0 min 0,0 km/h (0 Bft)
25.04.2010 04:06 17,9 C 7,1 C 0,0 UV-I 0,0 C 41 % 74 % 0 % 1020,7 hPa 0,0 l/m 0,0 km/h (0 Bft) 0 min 0,0 km/h (0 Bft)
25.04.2010 04:08 17,9 C 7,1 C 0,0 UV-I 0,0 C 41 % 73 % 0 % 1020,7 hPa 0,0 l/m 0,4 km/h (0 Bft) 0 min 5,2 km/h (1 Bft)
25.04.2010 04:10 17,9 C 7,1 C 0,0 UV-I 0,0 C 41 % 73 % 0 % 1020,7 hPa 0,0 l/m 0,4 km/h (0 Bft) 0 min 0,0 km/h (0 Bft)
25.04.2010 04:13 17,9 C 7,1 C 0,0 UV-I 0,0 C 41 % 73 % 0 % 1020,8 hPa 0,0 l/m 0,4 km/h (0 Bft) 0 min 0,0 km/h (0 Bft)
25.04.2010 04:19 17,9 C 7,2 C 0,0 UV-I 0,3 C 41 % 73 % 0 % 1020,8 hPa 0,0 l/m 0,4 km/h (0 Bft) 0 min 4,0 km/h (1 Bft)
25.04.2010 04:20 17,9 C 7,2 C 0,0 UV-I 0,3 C 41 % 73 % 0 % 1020,8 hPa 0,0 l/m 0,4 km/h (0 Bft) 0 min 4,0 km/h (1 Bft)
25.04.2010 04:22 17,8 C 7,2 C 0,0 UV-I 0,4 C 41 % 73 % 0 % 1020,8 hPa 0,0 l/m 0,4 km/h (0 Bft) 0 min 0,0 km/h (0 Bft)
25.04.2010 04:24 17,8 C 7,3 C 0,0 UV-I 0,3 C 41 % 73 % 0 % 1020,8 hPa 0,0 l/m 0,4 km/h (0 Bft) 0 min 0,0 km/h (0 Bft)
25.04.2010 04:26 17,8 C 7,3 C 0,0 UV-I 0,3 C 41 % 73 % 0 % 1020,8 hPa 0,0 l/m 0,4 km/h (0 Bft) 0 min 0,0 km/h (0 Bft)
25.04.2010 04:28 17,8 C 7,3 C 0,0 UV-I 0,4 C 41 % 72 % 0 % 1020,8 hPa 0,0 l/m 0,4 km/h (0 Bft) 0 min 0,0 km/h (0 Bft)
25.04.2010 04:30 17,8 C 7,2 C 0,0 UV-I 0,6 C 41 % 72 % 0 % 1020,8 hPa 0,0 l/m 0,4 km/h (0 Bft) 0 min 0,0 km/h (0 Bft)
25.04.2010 04:32 17,8 C 7,2 C 0,0 UV-I 0,6 C 41 % 72 % 0 % 1020,7 hPa 0,0 l/m 0,4 km/h (0 Bft) 0 min 0,0 km/h (0 Bft)
25.04.2010 04:34 17,8 C 7,2 C 0,0 UV-I 0,6 C 41 % 72 % 0 % 1020,7 hPa 0,0 l/m 0,4 km/h (0 Bft) 0 min 0,0 km/h (0 Bft)
25.04.2010 04:36 17,8 C 7,2 C 0,0 UV-I 0,7 C 41 % 72 % 0 % 1020,7 hPa 0,0 l/m 0,4 km/h (0 Bft) 0 min 0,0 km/h (0 Bft)
25.04.2010 04:38 17,8 C 7,3 C 0,0 UV-I 0,6 C 41 % 72 % 0 % 1020,7 hPa 0,0 l/m 0,4 km/h (0 Bft) 0 min 0,0 km/h (0 Bft)
25.04.2010 04:40 17,8 C 7,3 C 0,0 UV-I 0,6 C 41 % 72 % 0 % 1020,7 hPa 0,0 l/m 0,4 km/h (0 Bft) 0 min 0,0 km/h (0 Bft)
25.04.2010 04:42 17,8 C 7,3 C 0,0 UV-I 0,6 C 41 % 72 % 0 % 1020,7 hPa 0,0 l/m 0,4 km/h (0 Bft) 0 min 0,0 km/h (0 Bft)
25.04.2010 04:44 17,8 C 7,3 C 0,0 UV-I 0,7 C 41 % 72 % 0 % 1020,7 hPa 0,0 l/m 0,4 km/h (0 Bft) 0 min 0,0 km/h (0 Bft)
25.04.2010 04:46 17,8 C 7,5 C 0,0 UV-I 0,5 C 41 % 72 % 0 % 1020,7 hPa 0,0 l/m 0,4 km/h (0 Bft) 0 min 5,2 km/h (1 Bft)
25.04.2010 04:48 17,8 C 7,5 C 0,0 UV-I 0,6 C 41 % 72 % 0 % 1020,7 hPa 0,0 l/m 0,8 km/h (0 Bft) 0 min 0,0 km/h (0 Bft)
25.04.2010 04:50 17,8 C 7,5 C 0,0 UV-I 0,6 C 41 % 72 % 0 % 1020,7 hPa 0,0 l/m 0,8 km/h (0 Bft) 0 min 7,2 km/h (2 Bft)
25.04.2010 04:52 17,8 C 7,5 C 0,0 UV-I 0,7 C 41 % 71 % 0 % 1020,7 hPa 0,0 l/m 1,2 km/h (1 Bft) 0 min 4,4 km/h (1 Bft)
25.04.2010 04:54 17,8 C 7,6 C 0,0 UV-I 0,6 C 41 % 71 % 0 % 1020,7 hPa 0,0 l/m 1,6 km/h (1 Bft) 0 min 8,0 km/h (2 Bft)
25.04.2010 04:56 17,8 C 7,6 C 0,0 UV-I 0,7 C 42 % 71 % 0 % 1020,7 hPa 0,0 l/m 2,0 km/h (1 Bft) 0 min 6,8 km/h (2 Bft)
25.04.2010 04:58 17,8 C 7,7 C 0,0 UV-I 0,7 C 41 % 72 % 0 % 1020,7 hPa 0,0 l/m 2,0 km/h (1 Bft) 0 min 4,8 km/h (1 Bft)
25.04.2010 05:00 17,8 C 7,7 C 0,0 UV-I 0,7 C 41 % 71 % 0 % 1020,7 hPa 0,0 l/m 2,4 km/h (1 Bft) 0 min 8,0 km/h (2 Bft)
25.04.2010 05:02 17,8 C 7,9 C 0,0 UV-I 0,7 C 41 % 71 % 0 % 1020,7 hPa 0,0 l/m 3,2 km/h (1 Bft) 0 min 13,7 km/h (3 Bft)
25.04.2010 05:04 17,8 C 7,9 C 0,0 UV-I 0,7 C 41 % 71 % 0 % 1020,7 hPa 0,0 l/m 3,6 km/h (1 Bft) 0 min 5,2 km/h (1 Bft)
25.04.2010 05:06 17,8 C 7,9 C 0,0 UV-I 0,8 C 41 % 71 % 0 % 1020,7 hPa 0,0 l/m 4,0 km/h (1 Bft) 0 min 0,0 km/h (0 Bft)
25.04.2010 05:08 17,8 C 8,0 C 0,0 UV-I 0,8 C 41 % 70 % 0 % 1020,7 hPa 0,0 l/m 4,0 km/h (1 Bft) 0 min 8,8 km/h (2 Bft)
25.04.2010 05:10 17,8 C 8,1 C 0,0 UV-I 0,7 C 41 % 70 % 0 % 1020,7 hPa 0,0 l/m 4,0 km/h (1 Bft) 0 min 14,5 km/h (3 Bft)
25.04.2010 05:12 17,8 C 8,0 C 0,0 UV-I 0,9 C 41 % 70 % 0 % 1020,8 hPa 0,0 l/m 4,4 km/h (1 Bft) 0 min 6,4 km/h (2 Bft)
25.04.2010 05:14 17,8 C 8,1 C 0,0 UV-I 0,8 C 41 % 70 % 0 % 1020,8 hPa 0,0 l/m 3,6 km/h (1 Bft) 0 min 0,0 km/h (0 Bft)
25.04.2010 05:16 17,7 C 8,2 C 0,0 UV-I 0,7 C 41 % 70 % 0 % 1020,8 hPa 0,0 l/m 4,4 km/h (1 Bft) 0 min 7,2 km/h (2 Bft)
25.04.2010 05:18 17,7 C 8,2 C 0,0 UV-I 0,8 C 41 % 70 % 0 % 1020,8 hPa 0,0 l/m 5,2 km/h (1 Bft) 0 min 16,5 km/h (3 Bft)
25.04.2010 05:20 17,8 C 8,3 C 0,0 UV-I 0,8 C 41 % 70 % 0 % 1020,8 hPa 0,0 l/m 5,6 km/h (1 Bft) 0 min 16,5 km/h (3 Bft)
25.04.2010 05:22 17,7 C 8,4 C 0,0 UV-I 0,8 C 41 % 69 % 0 % 1020,8 hPa 0,0 l/m 5,6 km/h (1 Bft) 0 min 9,2 km/h (2 Bft)
25.04.2010 05:24 17,7 C 8,4 C 0,0 UV-I 0,8 C 41 % 69 % 0 % 1020,8 hPa 0,0 l/m 6,0 km/h (2 Bft) 0 min 7,6 km/h (2 Bft)
25.04.2010 05:26 17,8 C 8,4 C 0,0 UV-I 0,8 C 41 % 69 % 0 % 1020,8 hPa 0,0 l/m 5,6 km/h (1 Bft) 0 min 0,0 km/h (0 Bft)
25.04.2010 05:28 17,7 C 8,5 C 0,0 UV-I 0,7 C 41 % 68 % 0 % 1020,8 hPa 0,0 l/m 6,0 km/h (2 Bft) 0 min 8,8 km/h (2 Bft)
25.04.2010 05:30 17,8 C 8,5 C 0,0 UV-I 0,7 C 41 % 68 % 0 % 1020,8 hPa 0,0 l/m 5,6 km/h (1 Bft) 0 min 4,4 km/h (1 Bft)
25.04.2010 05:32 17,7 C 8,6 C 0,0 UV-I 0,6 C 41 % 68 % 0 % 1020,7 hPa 0,0 l/m 5,6 km/h (1 Bft) 0 min 16,1 km/h (3 Bft)
25.04.2010 05:34 17,7 C 8,6 C 0,0 UV-I 0,6 C 41 % 68 % 0 % 1020,7 hPa 0,0 l/m 6,0 km/h (2 Bft) 0 min 10,0 km/h (2 Bft)
25.04.2010 05:36 17,7 C 8,6 C 0,0 UV-I 0,7 C 41 % 68 % 0 % 1020,7 hPa 0,0 l/m 6,0 km/h (2 Bft) 0 min 7,6 km/h (2 Bft)
25.04.2010 05:38 17,7 C 8,7 C 0,0 UV-I 0,6 C 41 % 68 % 0 % 1020,7 hPa 0,0 l/m 6,0 km/h (2 Bft) 0 min 5,2 km/h (1 Bft)
25.04.2010 05:40 17,7 C 8,7 C 0,0 UV-I 0,6 C 41 % 67 % 0 % 1020,7 hPa 0,0 l/m 6,4 km/h (2 Bft) 0 min 9,2 km/h (2 Bft)
25.04.2010 05:42 17,7 C 8,8 C 0,0 UV-I 0,4 C 41 % 67 % 0 % 1020,7 hPa 0,0 l/m 6,4 km/h (2 Bft) 0 min 10,4 km/h (2 Bft)
25.04.2010 05:44 17,7 C 8,8 C 0,0 UV-I 0,4 C 41 % 67 % 0 % 1020,7 hPa 0,0 l/m 5,6 km/h (1 Bft) 0 min 8,8 km/h (2 Bft)
25.04.2010 05:46 17,7 C 8,8 C 0,0 UV-I 0,4 C 41 % 67 % 0 % 1020,7 hPa 0,0 l/m 4,4 km/h (1 Bft) 0 min 6,8 km/h (2 Bft)
25.04.2010 05:48 17,7 C 8,8 C 0,0 UV-I 0,4 C 41 % 67 % 0 % 1020,7 hPa 0,0 l/m 4,8 km/h (1 Bft) 0 min 4,4 km/h (1 Bft)
25.04.2010 05:50 17,7 C 8,8 C 0,0 UV-I 0,4 C 41 % 67 % 0 % 1020,7 hPa 0,0 l/m 4,8 km/h (1 Bft) 0 min 7,6 km/h (2 Bft)
25.04.2010 05:52 17,7 C 8,8 C 0,0 UV-I 0,4 C 41 % 67 % 0 % 1021,1 hPa 0,0 l/m 4,0 km/h (1 Bft) 0 min 0,0 km/h (0 Bft)
25.04.2010 05:54 17,7 C 8,9 C 0,0 UV-I 0,2 C 41 % 67 % 0 % 1021,1 hPa 0,0 l/m 4,4 km/h (1 Bft) 0 min 10,0 km/h (2 Bft)
25.04.2010 05:56 17,7 C 8,9 C 0,0 UV-I 0,2 C 41 % 67 % 0 % 1021,1 hPa 0,0 l/m 5,6 km/h (1 Bft) 0 min 9,6 km/h (2 Bft)
25.04.2010 05:58 17,7 C 8,9 C 0,0 UV-I 0,2 C 41 % 67 % 0 % 1021,1 hPa 0,0 l/m 6,0 km/h (2 Bft) 0 min 12,8 km/h (3 Bft)
25.04.2010 06:00 17,7 C 9,0 C 0,0 UV-I 0,1 C 41 % 67 % 0 % 1021,1 hPa 0,0 l/m 6,4 km/h (2 Bft) 0 min 8,8 km/h (2 Bft)
25.04.2010 06:02 17,7 C 9,1 C 0,0 UV-I 0,0 C 41 % 67 % 0 % 1021,1 hPa 0,0 l/m 6,4 km/h (2 Bft) 0 min 8,8 km/h (2 Bft)
25.04.2010 06:04 17,7 C 9,1 C 0,0 UV-I 0,0 C 41 % 67 % 0 % 1021,1 hPa 0,0 l/m 6,4 km/h (2 Bft) 0 min 8,8 km/h (2 Bft)
25.04.2010 06:06 17,7 C 9,1 C 0,0 UV-I 0,0 C 41 % 66 % 0 % 1021,1 hPa 0,0 l/m 7,2 km/h (2 Bft) 0 min 9,2 km/h (2 Bft)
25.04.2010 06:08 17,7 C 9,0 C 0,0 UV-I 0,1 C 41 % 66 % 0 % 1021,1 hPa 0,0 l/m 7,2 km/h (2 Bft) 0 min 12,4 km/h (3 Bft)
25.04.2010 06:10 17,7 C 9,0 C 0,0 UV-I 0,1 C 41 % 66 % 0 % 1021,1 hPa 0,0 l/m 7,6 km/h (2 Bft) 0 min 12,4 km/h (3 Bft)
25.04.2010 06:12 17,6 C 9,1 C 0,0 UV-I 0,0 C 41 % 66 % 0 % 1020,8 hPa 0,0 l/m 8,0 km/h (2 Bft) 0 min 17,3 km/h (3 Bft)
25.04.2010 06:14 17,7 C 9,1 C 0,0 UV-I 0,0 C 41 % 66 % 0 % 1020,8 hPa 0,0 l/m 9,2 km/h (2 Bft) 0 min 10,0 km/h (2 Bft)
25.04.2010 06:16 17,6 C 9,1 C 0,0 UV-I 0,0 C 41 % 66 % 0 % 1020,8 hPa 0,0 l/m 8,8 km/h (2 Bft) 0 min 8,0 km/h (2 Bft)
25.04.2010 06:18 17,6 C 9,1 C 0,0 UV-I 0,0 C 41 % 66 % 0 % 1020,8 hPa 0,0 l/m 9,2 km/h (2 Bft) 0 min 18,9 km/h (3 Bft)
25.04.2010 06:20 17,6 C 9,1 C 0,0 UV-I 0,0 C 41 % 66 % 0 % 1020,8 hPa 0,0 l/m 8,8 km/h (2 Bft) 0 min 18,9 km/h (3 Bft)
25.04.2010 06:22 17,6 C 9,1 C 0,0 UV-I 0,0 C 41 % 66 % 0 % 1020,8 hPa 0,0 l/m 9,2 km/h (2 Bft) 0 min 16,5 km/h (3 Bft)
25.04.2010 06:24 17,6 C 9,1 C 0,0 UV-I 0,0 C 41 % 66 % 0 % 1020,8 hPa 0,0 l/m 8,4 km/h (2 Bft) 0 min 9,6 km/h (2 Bft)
25.04.2010 06:26 17,6 C 9,1 C 0,0 UV-I 0,0 C 41 % 66 % 0 % 1020,8 hPa 0,0 l/m 8,4 km/h (2 Bft) 0 min 9,6 km/h (2 Bft)
25.04.2010 06:28 17,6 C 9,2 C 0,0 UV-I 0,0 C 41 % 66 % 0 % 1020,8 hPa 0,0 l/m 8,8 km/h (2 Bft) 0 min 6,0 km/h (2 Bft)
25.04.2010 06:30 17,6 C 9,2 C 0,0 UV-I 0,0 C 41 % 66 % 0 % 1020,8 hPa 0,0 l/m 8,8 km/h (2 Bft) 0 min 20,1 km/h (4 Bft)
25.04.2010 06:32 17,6 C 9,2 C 0,0 UV-I 0,0 C 41 % 66 % 0 % 1020,9 hPa 0,0 l/m 9,6 km/h (2 Bft) 0 min 12,0 km/h (2 Bft)
25.04.2010 06:34 17,6 C 9,1 C 0,0 UV-I 0,0 C 41 % 66 % 0 % 1020,9 hPa 0,0 l/m 9,2 km/h (2 Bft) 0 min 16,9 km/h (3 Bft)
25.04.2010 06:36 17,6 C 9,1 C 0,0 UV-I 0,0 C 41 % 65 % 0 % 1020,9 hPa 0,0 l/m 9,2 km/h (2 Bft) 0 min 17,7 km/h (3 Bft)
25.04.2010 06:38 17,6 C 9,2 C 0,0 UV-I 0,0 C 41 % 66 % 0 % 1020,9 hPa 0,0 l/m 9,6 km/h (2 Bft) 0 min 12,8 km/h (3 Bft)
25.04.2010 06:40 17,6 C 9,2 C 0,0 UV-I 0,0 C 41 % 65 % 0 % 1020,9 hPa 0,0 l/m 10,0 km/h (2 Bft) 0 min 20,5 km/h (4 Bft)
25.04.2010 06:42 17,6 C 9,2 C 0,0 UV-I 0,0 C 41 % 65 % 0 % 1020,9 hPa 0,0 l/m 9,6 km/h (2 Bft) 0 min 15,3 km/h (3 Bft)
25.04.2010 06:44 17,6 C 9,2 C 0,0 UV-I 0,0 C 41 % 65 % 0 % 1020,9 hPa 0,0 l/m 9,6 km/h (2 Bft) 0 min 11,2 km/h (2 Bft)
25.04.2010 06:46 17,6 C 9,3 C 0,0 UV-I 0,0 C 41 % 65 % 0 % 1020,9 hPa 0,0 l/m 9,2 km/h (2 Bft) 0 min 8,4 km/h (2 Bft)
25.04.2010 06:48 17,6 C 9,3 C 0,0 UV-I 0,0 C 41 % 65 % 0 % 1020,9 hPa 0,0 l/m 8,8 km/h (2 Bft) 0 min 10,8 km/h (2 Bft)
25.04.2010 06:50 17,6 C 9,2 C 0,0 UV-I 0,0 C 41 % 65 % 0 % 1020,9 hPa 0,0 l/m 8,8 km/h (2 Bft) 0 min 21,7 km/h (4 Bft)
25.04.2010 06:52 17,6 C 9,2 C 0,0 UV-I 0,0 C 41 % 65 % 0 % 1021,1 hPa 0,0 l/m 8,8 km/h (2 Bft) 0 min 6,4 km/h (2 Bft)
25.04.2010 06:54 17,6 C 9,3 C 0,0 UV-I 0,0 C 41 % 65 % 0 % 1021,1 hPa 0,0 l/m 9,2 km/h (2 Bft) 0 min 9,6 km/h (2 Bft)
25.04.2010 06:56 17,6 C 9,3 C 0,0 UV-I 0,0 C 41 % 65 % 0 % 1021,1 hPa 0,0 l/m 9,2 km/h (2 Bft) 0 min 17,7 km/h (3 Bft)
25.04.2010 06:58 17,6 C 9,3 C 0,0 UV-I 0,0 C 41 % 65 % 0 % 1021,1 hPa 0,0 l/m 9,6 km/h (2 Bft) 0 min 16,1 km/h (3 Bft)
25.04.2010 07:00 17,6 C 9,3 C 0,0 UV-I 0,0 C 41 % 65 % 0 % 1021,1 hPa 0,0 l/m 9,6 km/h (2 Bft) 0 min 10,8 km/h (2 Bft)
25.04.2010 07:02 17,6 C 9,3 C 0,0 UV-I 0,0 C 41 % 65 % 0 % 1021,1 hPa 0,0 l/m 10,4 km/h (2 Bft) 0 min 16,1 km/h (3 Bft)
25.04.2010 07:04 17,6 C 9,3 C 0,0 UV-I 0,0 C 41 % 65 % 0 % 1021,1 hPa 0,0 l/m 11,2 km/h (2 Bft) 0 min 20,5 km/h (4 Bft)
25.04.2010 07:06 17,6 C 9,3 C 0,1 UV-I 0,1 C 41 % 65 % 3 % 1021,1 hPa 0,0 l/m 10,4 km/h (2 Bft) 0 min 7,2 km/h (2 Bft)
25.04.2010 07:08 17,6 C 9,5 C 0,1 UV-I 0,0 C 41 % 65 % 0 % 1021,1 hPa 0,0 l/m 10,8 km/h (2 Bft) 0 min 14,9 km/h (3 Bft)
25.04.2010 07:10 17,6 C 9,5 C 0,0 UV-I 0,0 C 41 % 65 % 0 % 1021,1 hPa 0,0 l/m 10,0 km/h (2 Bft) 0 min 14,5 km/h (3 Bft)
25.04.2010 07:12 17,6 C 9,4 C 0,0 UV-I 0,1 C 41 % 65 % 3 % 1021,2 hPa 0,0 l/m 9,6 km/h (2 Bft) 0 min 11,6 km/h (2 Bft)
25.04.2010 07:14 17,6 C 9,5 C 0,0 UV-I 0,1 C 41 % 65 % 3 % 1021,2 hPa 0,0 l/m 9,2 km/h (2 Bft) 0 min 10,4 km/h (2 Bft)
25.04.2010 07:16 17,6 C 9,4 C 0,2 UV-I 0,2 C 41 % 65 % 6 % 1021,2 hPa 0,0 l/m 8,4 km/h (2 Bft) 0 min 9,6 km/h (2 Bft)
25.04.2010 07:18 17,6 C 9,5 C 0,2 UV-I 0,1 C 41 % 65 % 3 % 1021,2 hPa 0,0 l/m 8,0 km/h (2 Bft) 0 min 16,1 km/h (3 Bft)
25.04.2010 07:20 17,6 C 9,5 C 0,1 UV-I 0,2 C 41 % 65 % 6 % 1021,2 hPa 0,0 l/m 8,0 km/h (2 Bft) 0 min 9,6 km/h (2 Bft)
25.04.2010 07:22 17,6 C 9,6 C 0,1 UV-I 0,1 C 41 % 65 % 3 % 1021,2 hPa 0,0 l/m 8,0 km/h (2 Bft) 0 min 10,8 km/h (2 Bft)
25.04.2010 07:24 17,6 C 9,5 C 0,1 UV-I 0,2 C 41 % 65 % 6 % 1021,2 hPa 0,0 l/m 7,2 km/h (2 Bft) 0 min 9,2 km/h (2 Bft)
25.04.2010 07:26 17,6 C 9,5 C 0,3 UV-I 0,2 C 41 % 65 % 6 % 1021,2 hPa 0,0 l/m 7,6 km/h (2 Bft) 0 min 12,0 km/h (2 Bft)
25.04.2010 07:28 17,6 C 9,6 C 0,3 UV-I 0,2 C 41 % 65 % 6 % 1021,2 hPa 0,0 l/m 7,2 km/h (2 Bft) 0 min 15,7 km/h (3 Bft)
25.04.2010 07:30 17,6 C 9,6 C 0,2 UV-I 0,2 C 41 % 65 % 6 % 1021,2 hPa 0,0 l/m 7,6 km/h (2 Bft) 0 min 13,7 km/h (3 Bft)
25.04.2010 07:32 17,6 C 9,6 C 0,2 UV-I 0,3 C 41 % 65 % 9 % 1021,2 hPa 0,0 l/m 6,8 km/h (2 Bft) 0 min 7,6 km/h (2 Bft)
25.04.2010 07:34 17,6 C 9,6 C 0,2 UV-I 0,4 C 41 % 65 % 11 % 1021,2 hPa 0,0 l/m 7,2 km/h (2 Bft) 0 min 13,3 km/h (3 Bft)
25.04.2010 07:36 17,6 C 9,6 C 0,3 UV-I 0,4 C 41 % 65 % 11 % 1021,2 hPa 0,0 l/m 7,6 km/h (2 Bft) 0 min 8,8 km/h (2 Bft)
25.04.2010 07:38 17,6 C 9,6 C 0,3 UV-I 0,4 C 41 % 65 % 11 % 1021,2 hPa 0,0 l/m 7,2 km/h (2 Bft) 0 min 4,4 km/h (1 Bft)
25.04.2010 07:40 17,6 C 9,7 C 0,3 UV-I 0,4 C 41 % 65 % 11 % 1021,2 hPa 0,0 l/m 7,2 km/h (2 Bft) 0 min 9,2 km/h (2 Bft)
25.04.2010 07:42 17,6 C 9,7 C 0,3 UV-I 0,5 C 41 % 65 % 14 % 1021,2 hPa 0,0 l/m 6,4 km/h (2 Bft) 0 min 7,2 km/h (2 Bft)
25.04.2010 07:44 17,6 C 9,8 C 0,3 UV-I 0,4 C 41 % 65 % 11 % 1021,2 hPa 0,0 l/m 6,8 km/h (2 Bft) 0 min 9,6 km/h (2 Bft)
25.04.2010 07:46 17,6 C 9,8 C 0,2 UV-I 0,4 C 41 % 65 % 11 % 1021,2 hPa 0,0 l/m 6,0 km/h (2 Bft) 0 min 6,8 km/h (2 Bft)
25.04.2010 07:48 17,6 C 9,9 C 0,2 UV-I 0,5 C 41 % 65 % 14 % 1021,2 hPa 0,0 l/m 6,4 km/h (2 Bft) 0 min 6,4 km/h (2 Bft)
25.04.2010 07:50 17,6 C 9,8 C 0,3 UV-I 0,6 C 41 % 65 % 17 % 1021,2 hPa 0,0 l/m 7,2 km/h (2 Bft) 0 min 13,7 km/h (3 Bft)
25.04.2010 07:52 17,6 C 9,9 C 0,3 UV-I 0,6 C 41 % 65 % 17 % 1021,2 hPa 0,0 l/m 8,0 km/h (2 Bft) 0 min 14,5 km/h (3 Bft)
25.04.2010 07:54 17,6 C 9,9 C 0,3 UV-I 0,7 C 41 % 65 % 20 % 1021,2 hPa 0,0 l/m 8,0 km/h (2 Bft) 0 min 14,1 km/h (3 Bft)
25.04.2010 07:56 17,6 C 10,0 C 0,6 UV-I 0,6 C 41 % 65 % 17 % 1021,2 hPa 0,0 l/m 8,8 km/h (2 Bft) 0 min 9,6 km/h (2 Bft)
25.04.2010 07:58 17,6 C 10,0 C 0,6 UV-I 0,7 C 41 % 65 % 20 % 1021,2 hPa 0,0 l/m 8,8 km/h (2 Bft) 0 min 15,3 km/h (3 Bft)
25.04.2010 08:00 17,6 C 10,1 C 0,6 UV-I 0,7 C 42 % 65 % 20 % 1021,2 hPa 0,0 l/m 9,2 km/h (2 Bft) 0 min 14,5 km/h (3 Bft)
25.04.2010 08:04 17,6 C 10,3 C 0,6 UV-I 0,7 C 41 % 65 % 20 % 1021,2 hPa 0,0 l/m 8,8 km/h (2 Bft) 0 min 9,6 km/h (2 Bft)
25.04.2010 08:06 17,6 C 10,3 C 0,6 UV-I 0,8 C 42 % 65 % 23 % 1021,2 hPa 0,0 l/m 8,4 km/h (2 Bft) 0 min 7,6 km/h (2 Bft)
25.04.2010 08:08 17,6 C 10,3 C 0,6 UV-I 0,8 C 41 % 65 % 23 % 1021,2 hPa 0,0 l/m 8,4 km/h (2 Bft) 0 min 15,7 km/h (3 Bft)
25.04.2010 08:10 17,6 C 10,3 C 0,6 UV-I 0,9 C 41 % 65 % 26 % 1021,2 hPa 0,0 l/m 8,8 km/h (2 Bft) 0 min 22,5 km/h (4 Bft)
25.04.2010 08:12 17,6 C 10,4 C 0,6 UV-I 0,9 C 41 % 65 % 26 % 1021,4 hPa 0,0 l/m 8,8 km/h (2 Bft) 0 min 19,7 km/h (3 Bft)
25.04.2010 08:14 17,6 C 10,4 C 0,6 UV-I 0,9 C 42 % 65 % 26 % 1021,4 hPa 0,0 l/m 8,8 km/h (2 Bft) 0 min 7,2 km/h (2 Bft)
25.04.2010 08:16 17,6 C 10,5 C 0,6 UV-I 0,9 C 41 % 65 % 26 % 1021,4 hPa 0,0 l/m 9,6 km/h (2 Bft) 0 min 18,9 km/h (3 Bft)
25.04.2010 08:18 17,6 C 10,7 C 0,6 UV-I 0,8 C 42 % 64 % 23 % 1021,4 hPa 0,0 l/m 10,0 km/h (2 Bft) 0 min 10,0 km/h (2 Bft)
25.04.2010 08:20 17,6 C 10,7 C 0,6 UV-I 0,9 C 42 % 64 % 26 % 1021,4 hPa 0,0 l/m 9,6 km/h (2 Bft) 0 min 18,5 km/h (3 Bft)
25.04.2010 08:22 17,6 C 10,7 C 0,6 UV-I 1,0 C 42 % 64 % 29 % 1021,4 hPa 0,0 l/m 10,0 km/h (2 Bft) 0 min 13,3 km/h (3 Bft)
25.04.2010 08:24 17,6 C 10,8 C 0,6 UV-I 0,9 C 42 % 64 % 26 % 1021,4 hPa 0,0 l/m 9,6 km/h (2 Bft) 0 min 14,5 km/h (3 Bft)
25.04.2010 08:26 17,6 C 10,8 C 0,7 UV-I 1,0 C 42 % 64 % 29 % 1021,4 hPa 0,0 l/m 9,2 km/h (2 Bft) 0 min 14,9 km/h (3 Bft)
25.04.2010 08:28 17,6 C 10,8 C 0,7 UV-I 1,1 C 42 % 64 % 31 % 1021,4 hPa 0,0 l/m 9,6 km/h (2 Bft) 0 min 7,6 km/h (2 Bft)
25.04.2010 08:30 17,6 C 10,9 C 0,8 UV-I 1,1 C 42 % 63 % 31 % 1021,4 hPa 0,0 l/m 9,6 km/h (2 Bft) 0 min 24,9 km/h (4 Bft)
25.04.2010 08:32 17,6 C 11,1 C 0,8 UV-I 1,1 C 42 % 63 % 31 % 1021,4 hPa 0,0 l/m 9,6 km/h (2 Bft) 0 min 15,3 km/h (3 Bft)
25.04.2010 08:34 17,6 C 11,1 C 0,8 UV-I 1,1 C 42 % 63 % 31 % 1021,4 hPa 0,0 l/m 10,0 km/h (2 Bft) 0 min 13,7 km/h (3 Bft)
25.04.2010 08:36 17,6 C 11,2 C 0,7 UV-I 1,1 C 42 % 63 % 31 % 1021,4 hPa 0,0 l/m 10,0 km/h (2 Bft) 0 min 13,3 km/h (3 Bft)
25.04.2010 08:38 17,6 C 11,3 C 0,7 UV-I 1,0 C 42 % 63 % 29 % 1021,4 hPa 0,0 l/m 9,6 km/h (2 Bft) 0 min 21,3 km/h (4 Bft)
25.04.2010 08:40 17,6 C 11,3 C 0,9 UV-I 1,2 C 42 % 63 % 34 % 1021,4 hPa 0,0 l/m 10,0 km/h (2 Bft) 0 min 10,0 km/h (2 Bft)
25.04.2010 08:42 17,6 C 11,5 C 0,9 UV-I 1,1 C 42 % 63 % 31 % 1021,4 hPa 0,0 l/m 10,8 km/h (2 Bft) 0 min 20,9 km/h (4 Bft)
25.04.2010 08:44 17,6 C 11,4 C 0,9 UV-I 1,3 C 42 % 63 % 37 % 1021,4 hPa 0,0 l/m 10,4 km/h (2 Bft) 0 min 9,6 km/h (2 Bft)
25.04.2010 08:46 17,6 C 11,5 C 0,6 UV-I 1,3 C 42 % 63 % 37 % 1021,4 hPa 0,0 l/m 10,4 km/h (2 Bft) 0 min 5,6 km/h (1 Bft)
25.04.2010 08:48 17,7 C 11,6 C 0,6 UV-I 1,3 C 42 % 63 % 37 % 1021,4 hPa 0,0 l/m 10,4 km/h (2 Bft) 0 min 10,0 km/h (2 Bft)
25.04.2010 08:50 17,7 C 11,6 C 0,8 UV-I 1,4 C 42 % 63 % 40 % 1021,4 hPa 0,0 l/m 10,0 km/h (2 Bft) 0 min 10,0 km/h (2 Bft)
25.04.2010 08:52 17,7 C 11,7 C 0,8 UV-I 1,4 C 42 % 63 % 40 % 1021,6 hPa 0,0 l/m 9,6 km/h (2 Bft) 0 min 12,4 km/h (3 Bft)
25.04.2010 08:54 17,7 C 11,8 C 0,8 UV-I 1,5 C 42 % 62 % 43 % 1021,6 hPa 0,0 l/m 10,0 km/h (2 Bft) 0 min 14,9 km/h (3 Bft)
25.04.2010 08:56 17,7 C 11,9 C 1,1 UV-I 1,5 C 42 % 63 % 43 % 1021,6 hPa 0,0 l/m 8,8 km/h (2 Bft) 0 min 6,8 km/h (2 Bft)
25.04.2010 08:58 17,7 C 11,9 C 1,1 UV-I 1,7 C 42 % 63 % 49 % 1021,6 hPa 0,0 l/m 8,0 km/h (2 Bft) 0 min 16,1 km/h (3 Bft)
25.04.2010 09:00 17,7 C 12,0 C 1,2 UV-I 1,9 C 42 % 63 % 54 % 1021,6 hPa 0,0 l/m 7,2 km/h (2 Bft) 0 min 9,6 km/h (2 Bft)
25.04.2010 09:02 17,7 C 12,0 C 1,2 UV-I 2,0 C 42 % 62 % 57 % 1021,6 hPa 0,0 l/m 7,2 km/h (2 Bft) 0 min 9,6 km/h (2 Bft)
25.04.2010 09:04 17,7 C 12,3 C 1,2 UV-I 1,9 C 42 % 62 % 54 % 1021,6 hPa 0,0 l/m 6,0 km/h (2 Bft) 0 min 9,6 km/h (2 Bft)
25.04.2010 09:06 17,7 C 12,3 C 1,1 UV-I 2,0 C 42 % 62 % 57 % 1021,6 hPa 0,0 l/m 5,6 km/h (1 Bft) 0 min 10,4 km/h (2 Bft)
25.04.2010 09:08 17,7 C 12,3 C 1,1 UV-I 2,1 C 42 % 62 % 60 % 1021,6 hPa 0,0 l/m 6,0 km/h (2 Bft) 0 min 12,0 km/h (2 Bft)
25.04.2010 09:10 17,7 C 12,4 C 1,1 UV-I 2,1 C 42 % 62 % 60 % 1021,6 hPa 0,0 l/m 6,0 km/h (2 Bft) 0 min 14,1 km/h (3 Bft)
25.04.2010 09:12 17,8 C 12,4 C 1,1 UV-I 2,2 C 42 % 62 % 63 % 1021,6 hPa 0,0 l/m 6,0 km/h (2 Bft) 0 min 11,6 km/h (2 Bft)
25.04.2010 09:14 17,8 C 12,5 C 1,1 UV-I 2,1 C 42 % 61 % 60 % 1021,6 hPa 0,0 l/m 5,6 km/h (1 Bft) 0 min 15,3 km/h (3 Bft)
25.04.2010 09:16 17,8 C 12,7 C 1,2 UV-I 2,0 C 42 % 61 % 57 % 1021,6 hPa 0,0 l/m 5,6 km/h (1 Bft) 0 min 6,4 km/h (2 Bft)
25.04.2010 09:18 17,8 C 12,7 C 1,2 UV-I 2,1 C 42 % 61 % 60 % 1021,6 hPa 0,0 l/m 5,2 km/h (1 Bft) 0 min 5,6 km/h (1 Bft)
25.04.2010 09:20 17,8 C 12,9 C 1,1 UV-I 2,1 C 42 % 61 % 60 % 1021,6 hPa 0,0 l/m 4,8 km/h (1 Bft) 0 min 5,2 km/h (1 Bft)
25.04.2010 09:22 17,8 C 12,9 C 1,1 UV-I 2,2 C 42 % 61 % 63 % 1021,6 hPa 0,0 l/m 4,4 km/h (1 Bft) 0 min 10,0 km/h (2 Bft)
25.04.2010 09:26 17,9 C 13,1 C 1,3 UV-I 2,4 C 42 % 60 % 69 % 1021,6 hPa 0,0 l/m 5,6 km/h (1 Bft) 0 min 9,2 km/h (2 Bft)
25.04.2010 09:28 17,9 C 13,3 C 1,3 UV-I 2,4 C 42 % 60 % 69 % 1021,6 hPa 0,0 l/m 6,4 km/h (2 Bft) 0 min 10,0 km/h (2 Bft)
25.04.2010 09:32 17,9 C 13,5 C 1,3 UV-I 2,4 C 42 % 59 % 69 % 1022,1 hPa 0,0 l/m 8,0 km/h (2 Bft) 0 min 12,4 km/h (3 Bft)
25.04.2010 09:34 17,9 C 13,5 C 1,3 UV-I 2,4 C 42 % 59 % 69 % 1022,1 hPa 0,0 l/m 8,0 km/h (2 Bft) 0 min 16,5 km/h (3 Bft)
25.04.2010 09:36 17,9 C 13,6 C 1,5 UV-I 2,5 C 42 % 59 % 71 % 1022,1 hPa 0,0 l/m 7,6 km/h (2 Bft) 0 min 12,0 km/h (2 Bft)
25.04.2010 09:38 18,0 C 13,6 C 1,5 UV-I 2,7 C 42 % 59 % 77 % 1022,1 hPa 0,0 l/m 7,2 km/h (2 Bft) 0 min 11,2 km/h (2 Bft)
25.04.2010 09:40 18,0 C 13,7 C 1,5 UV-I 2,7 C 42 % 58 % 77 % 1022,1 hPa 0,0 l/m 6,8 km/h (2 Bft) 0 min 6,0 km/h (2 Bft)
25.04.2010 09:42 18,0 C 13,8 C 1,5 UV-I 2,7 C 42 % 58 % 77 % 1022,1 hPa 0,0 l/m 7,6 km/h (2 Bft) 0 min 13,3 km/h (3 Bft)
25.04.2010 09:44 18,0 C 14,0 C 1,5 UV-I 2,7 C 42 % 58 % 77 % 1022,1 hPa 0,0 l/m 7,2 km/h (2 Bft) 0 min 0,0 km/h (0 Bft)
25.04.2010 09:46 18,0 C 14,0 C 1,6 UV-I 3,3 C 42 % 58 % 94 % 1022,1 hPa 0,0 l/m 7,6 km/h (2 Bft) 2 min 7,2 km/h (2 Bft)
25.04.2010 09:48 18,0 C 14,3 C 1,6 UV-I 4,3 C 42 % 57 % 100 % 1022,1 hPa 0,0 l/m 8,4 km/h (2 Bft) 2 min 6,8 km/h (2 Bft)
25.04.2010 09:50 18,1 C 14,3 C 1,5 UV-I 5,3 C 42 % 57 % 100 % 1022,1 hPa 0,0 l/m 8,0 km/h (2 Bft) 2 min 12,0 km/h (2 Bft)
25.04.2010 09:52 18,1 C 14,4 C 1,5 UV-I 5,8 C 42 % 57 % 100 % 1021,8 hPa 0,0 l/m 7,6 km/h (2 Bft) 2 min 0,0 km/h (0 Bft)
25.04.2010 09:54 18,1 C 14,4 C 1,5 UV-I 6,5 C 42 % 56 % 100 % 1021,8 hPa 0,0 l/m 8,0 km/h (2 Bft) 2 min 6,4 km/h (2 Bft)
25.04.2010 09:56 18,2 C 14,7 C 1,4 UV-I 6,6 C 42 % 56 % 100 % 1021,8 hPa 0,0 l/m 7,6 km/h (2 Bft) 2 min 6,8 km/h (2 Bft)
25.04.2010 09:58 18,2 C 14,7 C 1,4 UV-I 7,1 C 42 % 56 % 100 % 1021,8 hPa 0,0 l/m 7,6 km/h (2 Bft) 2 min 21,7 km/h (4 Bft)
25.04.2010 10:00 18,2 C 14,9 C 1,7 UV-I 7,0 C 42 % 56 % 100 % 1021,8 hPa 0,0 l/m 8,8 km/h (2 Bft) 2 min 29,7 km/h (5 Bft)
25.04.2010 10:02 18,2 C 14,8 C 1,7 UV-I 7,1 C 42 % 55 % 100 % 1021,8 hPa 0,0 l/m 9,6 km/h (2 Bft) 2 min 18,5 km/h (3 Bft)
25.04.2010 10:04 18,2 C 15,0 C 1,7 UV-I 7,0 C 42 % 55 % 100 % 1021,8 hPa 0,0 l/m 10,8 km/h (2 Bft) 2 min 17,7 km/h (3 Bft)
25.04.2010 10:06 18,3 C 15,3 C 1,8 UV-I 6,7 C 41 % 55 % 100 % 1021,8 hPa 0,0 l/m 11,6 km/h (2 Bft) 2 min 6,8 km/h (2 Bft)
25.04.2010 10:08 18,2 C 15,3 C 1,8 UV-I 6,8 C 41 % 54 % 100 % 1021,8 hPa 0,0 l/m 13,3 km/h (3 Bft) 2 min 22,5 km/h (4 Bft)
25.04.2010 10:10 18,2 C 15,4 C 1,8 UV-I 6,5 C 41 % 53 % 100 % 1021,8 hPa 0,0 l/m 14,1 km/h (3 Bft) 2 min 32,1 km/h (5 Bft)
25.04.2010 10:12 18,4 C 15,5 C 1,8 UV-I 6,2 C 41 % 53 % 100 % 1021,9 hPa 0,0 l/m 13,7 km/h (3 Bft) 2 min 20,1 km/h (4 Bft)
25.04.2010 10:14 18,4 C 15,6 C 1,8 UV-I 5,6 C 41 % 53 % 100 % 1021,9 hPa 0,0 l/m 12,8 km/h (3 Bft) 2 min 10,4 km/h (2 Bft)
25.04.2010 10:16 18,4 C 15,6 C 1,5 UV-I 5,1 C 41 % 53 % 100 % 1021,9 hPa 0,0 l/m 11,2 km/h (2 Bft) 2 min 10,4 km/h (2 Bft)
25.04.2010 10:18 18,4 C 15,7 C 1,5 UV-I 4,7 C 41 % 53 % 100 % 1021,9 hPa 0,0 l/m 10,4 km/h (2 Bft) 2 min 6,8 km/h (2 Bft)
25.04.2010 10:20 18,4 C 15,7 C 1,5 UV-I 4,1 C 41 % 53 % 100 % 1021,9 hPa 0,0 l/m 7,6 km/h (2 Bft) 2 min 0,0 km/h (0 Bft)
25.04.2010 10:22 18,4 C 15,8 C 1,5 UV-I 3,5 C 41 % 53 % 100 % 1021,9 hPa 0,0 l/m 6,4 km/h (2 Bft) 2 min 15,7 km/h (3 Bft)
25.04.2010 10:24 18,4 C 15,8 C 1,5 UV-I 3,1 C 41 % 53 % 89 % 1021,9 hPa 0,0 l/m 7,2 km/h (2 Bft) 2 min 16,5 km/h (3 Bft)
25.04.2010 10:26 18,5 C 15,8 C 1,6 UV-I 2,8 C 42 % 53 % 80 % 1021,9 hPa 0,0 l/m 6,8 km/h (2 Bft) 0 min 9,6 km/h (2 Bft)
25.04.2010 10:28 18,5 C 15,9 C 1,6 UV-I 2,7 C 42 % 53 % 77 % 1021,9 hPa 0,0 l/m 7,2 km/h (2 Bft) 0 min 14,9 km/h (3 Bft)
25.04.2010 10:30 18,5 C 15,9 C 1,6 UV-I 2,9 C 41 % 53 % 83 % 1021,9 hPa 0,0 l/m 8,0 km/h (2 Bft) 2 min 14,5 km/h (3 Bft)
25.04.2010 10:32 18,5 C 16,0 C 1,6 UV-I 3,2 C 41 % 53 % 91 % 1021,8 hPa 0,0 l/m 9,2 km/h (2 Bft) 2 min 6,4 km/h (2 Bft)
25.04.2010 10:34 18,5 C 16,1 C 1,6 UV-I 2,9 C 42 % 53 % 83 % 1021,8 hPa 0,0 l/m 7,2 km/h (2 Bft) 2 min 7,6 km/h (2 Bft)
25.04.2010 10:36 18,5 C 16,0 C 1,1 UV-I 2,9 C 42 % 53 % 83 % 1021,8 hPa 0,0 l/m 6,8 km/h (2 Bft) 2 min 14,5 km/h (3 Bft)
25.04.2010 10:38 18,5 C 16,1 C 1,1 UV-I 2,5 C 42 % 52 % 71 % 1021,8 hPa 0,0 l/m 7,2 km/h (2 Bft) 0 min 12,4 km/h (3 Bft)
25.04.2010 10:40 18,6 C 16,1 C 1,6 UV-I 2,4 C 42 % 52 % 69 % 1021,8 hPa 0,0 l/m 6,4 km/h (2 Bft) 0 min 6,0 km/h (2 Bft)
25.04.2010 10:42 18,6 C 16,3 C 1,6 UV-I 2,1 C 42 % 52 % 60 % 1021,8 hPa 0,0 l/m 5,2 km/h (1 Bft) 0 min 4,8 km/h (1 Bft)
25.04.2010 10:44 18,6 C 16,3 C 1,6 UV-I 2,5 C 42 % 52 % 71 % 1021,8 hPa 0,0 l/m 4,8 km/h (1 Bft) 0 min 6,4 km/h (2 Bft)
25.04.2010 10:46 18,6 C 16,5 C 4,1 UV-I 3,1 C 42 % 52 % 89 % 1021,8 hPa 0,0 l/m 6,0 km/h (2 Bft) 2 min 11,2 km/h (2 Bft)
25.04.2010 10:48 18,6 C 16,7 C 4,1 UV-I 4,2 C 42 % 53 % 100 % 1021,8 hPa 0,0 l/m 5,6 km/h (1 Bft) 2 min 24,5 km/h (4 Bft)
25.04.2010 10:52 18,6 C 17,0 C 10,1 UV-I 6,1 C 42 % 53 % 100 % 1021,6 hPa 0,0 l/m 6,4 km/h (2 Bft) 2 min 9,2 km/h (2 Bft)
25.04.2010 10:54 18,6 C 17,2 C 10,1 UV-I 6,3 C 42 % 52 % 100 % 1021,6 hPa 0,0 l/m 7,2 km/h (2 Bft) 2 min 8,0 km/h (2 Bft)
25.04.2010 10:56 18,7 C 17,3 C 5,7 UV-I 6,0 C 42 % 52 % 100 % 1021,6 hPa 0,0 l/m 6,8 km/h (2 Bft) 2 min 21,7 km/h (4 Bft)
25.04.2010 10:58 18,7 C 17,4 C 5,7 UV-I 6,1 C 42 % 52 % 100 % 1021,6 hPa 0,0 l/m 7,2 km/h (2 Bft) 2 min 8,8 km/h (2 Bft)
25.04.2010 11:00 18,7 C 17,5 C 6,1 UV-I 5,6 C 41 % 51 % 100 % 1021,6 hPa 0,0 l/m 8,0 km/h (2 Bft) 2 min 13,3 km/h (3 Bft)
25.04.2010 11:02 18,7 C 17,6 C 6,1 UV-I 5,1 C 42 % 50 % 100 % 1021,6 hPa 0,0 l/m 8,0 km/h (2 Bft) 2 min 8,8 km/h (2 Bft)
25.04.2010 11:04 18,7 C 17,7 C 6,1 UV-I 4,9 C 41 % 50 % 100 % 1021,6 hPa 0,0 l/m 8,8 km/h (2 Bft) 2 min 25,3 km/h (4 Bft)
25.04.2010 11:06 18,8 C 17,9 C 6,9 UV-I 5,1 C 41 % 50 % 100 % 1021,6 hPa 0,0 l/m 8,8 km/h (2 Bft) 2 min 6,4 km/h (2 Bft)
25.04.2010 11:08 18,8 C 18,0 C 6,9 UV-I 5,6 C 42 % 49 % 100 % 1021,6 hPa 0,0 l/m 10,0 km/h (2 Bft) 2 min 16,9 km/h (3 Bft)
25.04.2010 11:10 18,8 C 18,2 C 10,1 UV-I 5,8 C 41 % 49 % 100 % 1021,6 hPa 0,0 l/m 10,8 km/h (2 Bft) 2 min 11,6 km/h (2 Bft)
25.04.2010 11:12 18,8 C 18,5 C 10,1 UV-I 5,8 C 41 % 49 % 100 % 1022,0 hPa 0,0 l/m 11,2 km/h (2 Bft) 2 min 11,2 km/h (2 Bft)
25.04.2010 11:14 18,8 C 18,5 C 10,1 UV-I 5,9 C 42 % 48 % 100 % 1022,0 hPa 0,0 l/m 10,4 km/h (2 Bft) 2 min 4,8 km/h (1 Bft)
25.04.2010 11:16 18,8 C 18,6 C 6,4 UV-I 5,8 C 41 % 48 % 100 % 1022,0 hPa 0,0 l/m 9,2 km/h (2 Bft) 2 min 6,8 km/h (2 Bft)
25.04.2010 11:18 18,8 C 18,7 C 6,4 UV-I 5,2 C 42 % 48 % 100 % 1022,0 hPa 0,0 l/m 7,6 km/h (2 Bft) 2 min 5,2 km/h (1 Bft)
25.04.2010 11:20 18,8 C 18,7 C 4,2 UV-I 5,0 C 41 % 48 % 100 % 1022,0 hPa 0,0 l/m 6,4 km/h (2 Bft) 2 min 6,0 km/h (2 Bft)
25.04.2010 11:22 18,8 C 18,8 C 4,2 UV-I 4,8 C 42 % 48 % 100 % 1022,0 hPa 0,0 l/m 4,0 km/h (1 Bft) 2 min 7,2 km/h (2 Bft)
25.04.2010 11:24 18,9 C 18,9 C 4,2 UV-I 4,9 C 41 % 48 % 100 % 1022,0 hPa 0,0 l/m 3,2 km/h (1 Bft) 2 min 4,0 km/h (1 Bft)
25.04.2010 11:26 18,8 C 18,9 C 7,1 UV-I 5,5 C 41 % 48 % 100 % 1022,0 hPa 0,0 l/m 2,8 km/h (1 Bft) 2 min 0,0 km/h (0 Bft)
25.04.2010 11:28 18,9 C 19,1 C 7,1 UV-I 6,2 C 41 % 48 % 100 % 1022,0 hPa 0,0 l/m 2,0 km/h (1 Bft) 2 min 0,0 km/h (0 Bft)
25.04.2010 11:32 18,9 C 19,5 C 4,8 UV-I 6,4 C 42 % 47 % 100 % 1021,5 hPa 0,0 l/m 3,6 km/h (1 Bft) 2 min 16,5 km/h (3 Bft)
25.04.2010 11:34 18,9 C 19,6 C 4,8 UV-I 6,7 C 41 % 47 % 100 % 1021,5 hPa 0,0 l/m 4,8 km/h (1 Bft) 2 min 11,2 km/h (2 Bft)
25.04.2010 11:36 19,0 C 19,9 C 4,3 UV-I 6,7 C 42 % 46 % 100 % 1021,5 hPa 0,0 l/m 5,2 km/h (1 Bft) 2 min 5,2 km/h (1 Bft)
25.04.2010 11:38 19,0 C 20,1 C 4,3 UV-I 6,9 C 41 % 45 % 100 % 1021,5 hPa 0,0 l/m 6,0 km/h (2 Bft) 2 min 6,4 km/h (2 Bft)
25.04.2010 11:40 19,0 C 20,2 C 5,4 UV-I 6,8 C 41 % 45 % 100 % 1021,5 hPa 0,0 l/m 9,2 km/h (2 Bft) 2 min 15,3 km/h (3 Bft)
25.04.2010 11:42 19,0 C 20,3 C 5,4 UV-I 6,3 C 41 % 44 % 100 % 1021,5 hPa 0,0 l/m 8,4 km/h (2 Bft) 2 min 10,0 km/h (2 Bft)
25.04.2010 11:44 19,0 C 20,3 C 5,4 UV-I 5,5 C 41 % 44 % 100 % 1021,5 hPa 0,0 l/m 9,2 km/h (2 Bft) 2 min 18,1 km/h (3 Bft)
25.04.2010 11:46 19,0 C 20,4 C 4,1 UV-I 4,9 C 41 % 44 % 100 % 1021,5 hPa 0,0 l/m 9,2 km/h (2 Bft) 2 min 8,0 km/h (2 Bft)
25.04.2010 11:48 19,0 C 20,5 C 4,1 UV-I 4,5 C 41 % 43 % 100 % 1021,5 hPa 0,0 l/m 9,6 km/h (2 Bft) 2 min 8,8 km/h (2 Bft)
25.04.2010 11:50 19,1 C 20,5 C 4,0 UV-I 4,4 C 41 % 43 % 100 % 1021,5 hPa 0,0 l/m 8,8 km/h (2 Bft) 2 min 19,3 km/h (3 Bft)
25.04.2010 11:52 19,1 C 20,6 C 4,0 UV-I 4,3 C 41 % 43 % 100 % 1021,9 hPa 0,0 l/m 7,6 km/h (2 Bft) 2 min 7,6 km/h (2 Bft)
25.04.2010 11:54 19,1 C 20,6 C 4,0 UV-I 4,1 C 41 % 44 % 100 % 1021,9 hPa 0,0 l/m 6,4 km/h (2 Bft) 2 min 15,3 km/h (3 Bft)
25.04.2010 11:56 19,1 C 20,7 C 3,2 UV-I 3,8 C 41 % 43 % 100 % 1021,9 hPa 0,0 l/m 5,6 km/h (1 Bft) 2 min 6,4 km/h (2 Bft)
25.04.2010 11:58 19,2 C 20,8 C 3,2 UV-I 3,5 C 41 % 43 % 100 % 1021,9 hPa 0,0 l/m 5,2 km/h (1 Bft) 2 min 8,0 km/h (2 Bft)
25.04.2010 12:00 19,2 C 20,9 C 3,1 UV-I 3,3 C 41 % 43 % 94 % 1021,9 hPa 0,0 l/m 4,0 km/h (1 Bft) 2 min 0,0 km/h (0 Bft)
25.04.2010 12:02 19,2 C 20,8 C 3,1 UV-I 3,3 C 41 % 43 % 94 % 1021,9 hPa 0,0 l/m 3,2 km/h (1 Bft) 2 min 6,8 km/h (2 Bft)
25.04.2010 12:04 19,2 C 20,8 C 3,1 UV-I 3,3 C 41 % 43 % 94 % 1021,9 hPa 0,0 l/m 3,2 km/h (1 Bft) 2 min 6,8 km/h (2 Bft)
25.04.2010 12:06 19,2 C 21,0 C 5,3 UV-I 3,4 C 41 % 42 % 97 % 1021,9 hPa 0,0 l/m 4,0 km/h (1 Bft) 2 min 10,0 km/h (2 Bft)
25.04.2010 12:08 19,2 C 21,1 C 5,3 UV-I 3,6 C 41 % 42 % 100 % 1021,9 hPa 0,0 l/m 5,2 km/h (1 Bft) 2 min 12,0 km/h (2 Bft)
25.04.2010 12:10 19,2 C 21,2 C 5,5 UV-I 3,4 C 41 % 42 % 97 % 1021,9 hPa 0,0 l/m 6,8 km/h (2 Bft) 2 min 9,2 km/h (2 Bft)
25.04.2010 12:12 19,2 C 21,3 C 5,5 UV-I 3,3 C 41 % 42 % 94 % 1021,9 hPa 0,0 l/m 8,4 km/h (2 Bft) 2 min 12,4 km/h (3 Bft)
25.04.2010 12:14 19,2 C 21,4 C 5,5 UV-I 3,1 C 41 % 41 % 89 % 1021,9 hPa 0,0 l/m 10,0 km/h (2 Bft) 2 min 27,3 km/h (4 Bft)
25.04.2010 12:16 19,3 C 21,4 C 4,0 UV-I 2,7 C 41 % 41 % 77 % 1021,9 hPa 0,0 l/m 12,0 km/h (2 Bft) 0 min 17,3 km/h (3 Bft)
25.04.2010 12:18 19,3 C 21,4 C 4,0 UV-I 2,2 C 41 % 42 % 63 % 1021,9 hPa 0,0 l/m 11,6 km/h (2 Bft) 0 min 14,1 km/h (3 Bft)
25.04.2010 12:20 19,3 C 21,4 C 2,5 UV-I 2,0 C 41 % 41 % 57 % 1021,9 hPa 0,0 l/m 11,6 km/h (2 Bft) 0 min 15,3 km/h (3 Bft)
25.04.2010 12:22 19,2 C 21,4 C 2,5 UV-I 1,7 C 41 % 41 % 49 % 1021,9 hPa 0,0 l/m 10,8 km/h (2 Bft) 0 min 4,0 km/h (1 Bft)
25.04.2010 12:24 19,2 C 21,4 C 2,5 UV-I 1,5 C 41 % 42 % 43 % 1021,9 hPa 0,0 l/m 8,4 km/h (2 Bft) 0 min 0,0 km/h (0 Bft)
25.04.2010 12:26 19,2 C 21,4 C 1,7 UV-I 1,5 C 41 % 42 % 43 % 1021,9 hPa 0,0 l/m 5,6 km/h (1 Bft) 0 min 8,4 km/h (2 Bft)
25.04.2010 12:30 19,2 C 21,6 C 1,9 UV-I 1,2 C 41 % 41 % 34 % 1021,9 hPa 0,0 l/m 2,8 km/h (1 Bft) 0 min 5,6 km/h (1 Bft)
25.04.2010 12:34 19,4 C 21,6 C 1,9 UV-I 1,1 C 41 % 41 % 31 % 1021,5 hPa 0,0 l/m 6,4 km/h (2 Bft) 0 min 20,1 km/h (4 Bft)
25.04.2010 12:36 19,4 C 21,6 C 2,6 UV-I 0,9 C 41 % 40 % 26 % 1021,5 hPa 0,0 l/m 8,8 km/h (2 Bft) 0 min 9,6 km/h (2 Bft)
25.04.2010 12:40 19,4 C 21,6 C 2,5 UV-I 0,7 C 41 % 39 % 20 % 1021,5 hPa 0,0 l/m 13,3 km/h (3 Bft) 0 min 25,7 km/h (4 Bft)
25.04.2010 12:42 19,4 C 21,5 C 2,5 UV-I 0,7 C 41 % 39 % 20 % 1021,5 hPa 0,0 l/m 13,3 km/h (3 Bft) 0 min 4,0 km/h (1 Bft)
25.04.2010 12:44 19,4 C 21,6 C 2,5 UV-I 0,7 C 41 % 39 % 20 % 1021,5 hPa 0,0 l/m 11,6 km/h (2 Bft) 0 min 5,2 km/h (1 Bft)
25.04.2010 12:46 19,5 C 21,7 C 2,6 UV-I 0,6 C 41 % 39 % 17 % 1021,5 hPa 0,0 l/m 10,4 km/h (2 Bft) 0 min 10,0 km/h (2 Bft)
25.04.2010 12:48 19,5 C 21,6 C 2,6 UV-I 0,8 C 41 % 40 % 23 % 1021,5 hPa 0,0 l/m 9,2 km/h (2 Bft) 0 min 6,0 km/h (2 Bft)
25.04.2010 12:50 19,5 C 21,7 C 3,8 UV-I 0,9 C 41 % 40 % 26 % 1021,5 hPa 0,0 l/m 8,0 km/h (2 Bft) 0 min 10,0 km/h (2 Bft)
25.04.2010 12:52 19,5 C 21,7 C 3,8 UV-I 1,2 C 41 % 40 % 34 % 1021,4 hPa 0,0 l/m 7,6 km/h (2 Bft) 0 min 14,9 km/h (3 Bft)
25.04.2010 12:54 19,5 C 21,8 C 3,8 UV-I 1,1 C 41 % 40 % 31 % 1021,4 hPa 0,0 l/m 8,0 km/h (2 Bft) 0 min 5,6 km/h (1 Bft)
25.04.2010 12:56 19,5 C 21,9 C 3,9 UV-I 1,3 C 41 % 40 % 37 % 1021,4 hPa 0,0 l/m 7,6 km/h (2 Bft) 0 min 10,0 km/h (2 Bft)
25.04.2010 12:58 19,5 C 21,8 C 3,9 UV-I 1,8 C 41 % 41 % 51 % 1021,4 hPa 0,0 l/m 8,0 km/h (2 Bft) 0 min 8,4 km/h (2 Bft)
25.04.2010 13:00 19,6 C 22,1 C 7,8 UV-I 2,2 C 41 % 40 % 63 % 1021,4 hPa 0,0 l/m 8,8 km/h (2 Bft) 0 min 9,2 km/h (2 Bft)
25.04.2010 13:02 19,6 C 22,2 C 7,8 UV-I 3,1 C 41 % 41 % 89 % 1021,4 hPa 0,0 l/m 7,6 km/h (2 Bft) 2 min 8,0 km/h (2 Bft)
25.04.2010 13:04 19,6 C 22,3 C 7,8 UV-I 3,6 C 41 % 40 % 100 % 1021,4 hPa 0,0 l/m 7,2 km/h (2 Bft) 2 min 19,3 km/h (3 Bft)
25.04.2010 13:06 19,6 C 22,5 C 7,8 UV-I 3,9 C 41 % 40 % 100 % 1021,4 hPa 0,0 l/m 8,8 km/h (2 Bft) 2 min 18,1 km/h (3 Bft)
25.04.2010 13:08 19,6 C 22,5 C 7,8 UV-I 4,2 C 41 % 40 % 100 % 1021,4 hPa 0,0 l/m 8,4 km/h (2 Bft) 2 min 5,2 km/h (1 Bft)
25.04.2010 13:10 19,6 C 22,7 C 7,2 UV-I 3,9 C 41 % 39 % 100 % 1021,4 hPa 0,0 l/m 8,0 km/h (2 Bft) 2 min 14,1 km/h (3 Bft)
25.04.2010 13:12 19,6 C 22,7 C 7,2 UV-I 4,1 C 41 % 39 % 100 % 1021,7 hPa 0,0 l/m 8,8 km/h (2 Bft) 2 min 12,4 km/h (3 Bft)
25.04.2010 13:14 19,6 C 22,8 C 7,2 UV-I 4,3 C 41 % 40 % 100 % 1021,7 hPa 0,0 l/m 9,2 km/h (2 Bft) 2 min 12,8 km/h (3 Bft)
25.04.2010 13:16 19,7 C 22,9 C 9,0 UV-I 4,8 C 41 % 39 % 100 % 1021,7 hPa 0,0 l/m 7,6 km/h (2 Bft) 2 min 0,0 km/h (0 Bft)
25.04.2010 13:18 19,7 C 23,1 C 9,0 UV-I 4,9 C 41 % 38 % 100 % 1021,7 hPa 0,0 l/m 6,0 km/h (2 Bft) 2 min 5,2 km/h (1 Bft)
25.04.2010 13:20 19,7 C 23,2 C 6,6 UV-I 5,1 C 41 % 38 % 100 % 1021,7 hPa 0,0 l/m 5,2 km/h (1 Bft) 2 min 0,0 km/h (0 Bft)
25.04.2010 13:22 19,7 C 23,3 C 6,6 UV-I 5,3 C 41 % 38 % 100 % 1021,7 hPa 0,0 l/m 5,2 km/h (1 Bft) 2 min 16,1 km/h (3 Bft)
25.04.2010 13:24 19,8 C 23,4 C 6,6 UV-I 5,5 C 41 % 38 % 100 % 1021,7 hPa 0,0 l/m 5,2 km/h (1 Bft) 2 min 5,2 km/h (1 Bft)
25.04.2010 13:26 19,8 C 23,5 C 10,9 UV-I 5,8 C 41 % 37 % 100 % 1021,7 hPa 0,0 l/m 5,2 km/h (1 Bft) 2 min 10,0 km/h (2 Bft)
25.04.2010 13:28 19,8 C 23,7 C 10,9 UV-I 6,0 C 40 % 37 % 100 % 1021,7 hPa 0,0 l/m 6,0 km/h (2 Bft) 2 min 0,0 km/h (0 Bft)
25.04.2010 13:30 19,8 C 23,7 C 10,7 UV-I 6,4 C 40 % 37 % 100 % 1021,7 hPa 0,0 l/m 6,4 km/h (2 Bft) 2 min 9,6 km/h (2 Bft)
25.04.2010 13:32 19,8 C 23,8 C 10,7 UV-I 6,4 C 40 % 37 % 100 % 1021,6 hPa 0,0 l/m 6,0 km/h (2 Bft) 2 min 4,4 km/h (1 Bft)
25.04.2010 13:36 20,0 C 24,3 C 10,3 UV-I 6,2 C 40 % 37 % 100 % 1021,6 hPa 0,0 l/m 4,8 km/h (1 Bft) 2 min 13,3 km/h (3 Bft)
25.04.2010 13:38 20,0 C 24,3 C 10,3 UV-I 6,3 C 40 % 36 % 100 % 1021,6 hPa 0,0 l/m 4,0 km/h (1 Bft) 2 min 14,1 km/h (3 Bft)
25.04.2010 13:40 20,0 C 24,5 C 10,9 UV-I 6,3 C 40 % 36 % 100 % 1021,6 hPa 0,0 l/m 4,4 km/h (1 Bft) 2 min 9,2 km/h (2 Bft)
25.04.2010 13:42 20,1 C 24,5 C 10,9 UV-I 6,3 C 40 % 37 % 100 % 1021,6 hPa 0,0 l/m 4,0 km/h (1 Bft) 2 min 0,0 km/h (0 Bft)
25.04.2010 13:44 20,1 C 24,7 C 10,9 UV-I 6,2 C 40 % 36 % 100 % 1021,6 hPa 0,0 l/m 4,0 km/h (1 Bft) 2 min 0,0 km/h (0 Bft)
25.04.2010 13:46 20,2 C 24,8 C 10,7 UV-I 6,4 C 40 % 35 % 100 % 1021,6 hPa 0,0 l/m 4,4 km/h (1 Bft) 2 min 9,2 km/h (2 Bft)
25.04.2010 13:48 20,2 C 24,8 C 10,7 UV-I 6,6 C 40 % 35 % 100 % 1021,6 hPa 0,0 l/m 4,8 km/h (1 Bft) 2 min 6,8 km/h (2 Bft)
25.04.2010 13:50 20,2 C 24,8 C 11,7 UV-I 6,8 C 40 % 35 % 100 % 1021,6 hPa 0,0 l/m 4,4 km/h (1 Bft) 2 min 4,0 km/h (1 Bft)
25.04.2010 13:52 20,3 C 24,8 C 11,7 UV-I 7,1 C 40 % 35 % 100 % 1021,8 hPa 0,0 l/m 3,2 km/h (1 Bft) 2 min 0,0 km/h (0 Bft)
25.04.2010 13:54 20,2 C 25,0 C 11,7 UV-I 7,2 C 40 % 36 % 100 % 1021,8 hPa 0,0 l/m 3,2 km/h (1 Bft) 2 min 0,0 km/h (0 Bft)
25.04.2010 13:56 20,4 C 25,3 C 11,8 UV-I 7,0 C 40 % 35 % 100 % 1021,8 hPa 0,0 l/m 4,0 km/h (1 Bft) 2 min 7,2 km/h (2 Bft)
25.04.2010 13:58 20,4 C 25,4 C 11,8 UV-I 6,8 C 40 % 33 % 100 % 1021,8 hPa 0,0 l/m 3,6 km/h (1 Bft) 2 min 4,0 km/h (1 Bft)
25.04.2010 14:00 20,5 C 25,7 C 10,6 UV-I 6,3 C 40 % 33 % 100 % 1021,8 hPa 0,0 l/m 3,2 km/h (1 Bft) 2 min 4,8 km/h (1 Bft)
25.04.2010 14:02 20,5 C 25,6 C 10,6 UV-I 6,6 C 40 % 32 % 100 % 1021,8 hPa 0,0 l/m 3,2 km/h (1 Bft) 2 min 0,0 km/h (0 Bft)
25.04.2010 14:04 20,6 C 25,8 C 10,6 UV-I 6,5 C 40 % 32 % 100 % 1021,8 hPa 0,0 l/m 3,2 km/h (1 Bft) 2 min 4,8 km/h (1 Bft)
25.04.2010 14:06 20,6 C 25,9 C 10,9 UV-I 6,5 C 40 % 32 % 100 % 1021,8 hPa 0,0 l/m 2,8 km/h (1 Bft) 2 min 8,4 km/h (2 Bft)
25.04.2010 14:08 20,7 C 25,9 C 10,9 UV-I 6,5 C 40 % 31 % 100 % 1021,8 hPa 0,0 l/m 2,0 km/h (1 Bft) 2 min 4,0 km/h (1 Bft)
25.04.2010 14:10 20,7 C 26,0 C 10,2 UV-I 6,5 C 40 % 31 % 100 % 1021,8 hPa 0,0 l/m 2,0 km/h (1 Bft) 2 min 0,0 km/h (0 Bft)
25.04.2010 14:12 20,8 C 26,1 C 10,2 UV-I 6,3 C 39 % 31 % 100 % 1023,7 hPa 0,0 l/m 1,6 km/h (1 Bft) 2 min 7,2 km/h (2 Bft)
25.04.2010 14:14 20,8 C 26,1 C 10,2 UV-I 5,5 C 39 % 32 % 100 % 1023,7 hPa 0,0 l/m 1,6 km/h (1 Bft) 2 min 0,0 km/h (0 Bft)
25.04.2010 14:16 20,8 C 26,3 C 7,0 UV-I 4,9 C 39 % 31 % 100 % 1023,7 hPa 0,0 l/m 2,0 km/h (1 Bft) 2 min 5,6 km/h (1 Bft)
25.04.2010 14:18 20,9 C 26,3 C 7,0 UV-I 5,2 C 39 % 32 % 100 % 1023,7 hPa 0,0 l/m 2,4 km/h (1 Bft) 2 min 0,0 km/h (0 Bft)
25.04.2010 14:20 20,9 C 26,3 C 11,7 UV-I 5,4 C 39 % 32 % 100 % 1023,7 hPa 0,0 l/m 3,6 km/h (1 Bft) 2 min 12,0 km/h (2 Bft)
25.04.2010 14:22 21,0 C 26,5 C 11,7 UV-I 5,2 C 39 % 32 % 100 % 1023,7 hPa 0,0 l/m 4,8 km/h (1 Bft) 2 min 4,4 km/h (1 Bft)
25.04.2010 14:24 21,1 C 26,7 C 11,7 UV-I 5,3 C 39 % 31 % 100 % 1023,7 hPa 0,0 l/m 4,0 km/h (1 Bft) 2 min 0,0 km/h (0 Bft)
25.04.2010 14:26 21,1 C 26,7 C 11,9 UV-I 5,6 C 39 % 31 % 100 % 1023,7 hPa 0,0 l/m 4,4 km/h (1 Bft) 2 min 4,4 km/h (1 Bft)
25.04.2010 14:28 21,2 C 26,8 C 11,9 UV-I 5,9 C 39 % 31 % 100 % 1023,7 hPa 0,0 l/m 4,8 km/h (1 Bft) 2 min 8,0 km/h (2 Bft)
25.04.2010 14:30 21,2 C 26,8 C 10,4 UV-I 5,5 C 39 % 29 % 100 % 1023,7 hPa 0,0 l/m 5,2 km/h (1 Bft) 2 min 19,3 km/h (3 Bft)
25.04.2010 14:32 21,2 C 26,8 C 10,4 UV-I 5,3 C 38 % 30 % 100 % 1024,1 hPa 0,0 l/m 4,8 km/h (1 Bft) 2 min 0,0 km/h (0 Bft)
25.04.2010 14:34 21,3 C 26,9 C 10,4 UV-I 5,3 C 38 % 30 % 100 % 1024,1 hPa 0,0 l/m 4,8 km/h (1 Bft) 2 min 10,4 km/h (2 Bft)
25.04.2010 14:36 21,4 C 27,1 C 12,1 UV-I 5,4 C 38 % 30 % 100 % 1024,1 hPa 0,0 l/m 5,2 km/h (1 Bft) 2 min 0,0 km/h (0 Bft)
25.04.2010 14:38 21,4 C 27,2 C 12,1 UV-I 5,6 C 38 % 30 % 100 % 1024,1 hPa 0,0 l/m 4,8 km/h (1 Bft) 2 min 6,4 km/h (2 Bft)
25.04.2010 14:40 21,5 C 27,2 C 10,2 UV-I 5,9 C 38 % 30 % 100 % 1024,1 hPa 0,0 l/m 4,8 km/h (1 Bft) 2 min 16,1 km/h (3 Bft)
25.04.2010 14:42 21,5 C 27,3 C 10,2 UV-I 5,5 C 38 % 30 % 100 % 1024,1 hPa 0,0 l/m 3,6 km/h (1 Bft) 2 min 4,4 km/h (1 Bft)
25.04.2010 14:44 21,5 C 27,5 C 10,2 UV-I 4,9 C 38 % 28 % 100 % 1024,1 hPa 0,0 l/m 3,6 km/h (1 Bft) 2 min 7,6 km/h (2 Bft)
25.04.2010 14:46 21,6 C 27,4 C 7,1 UV-I 4,6 C 38 % 29 % 100 % 1024,1 hPa 0,0 l/m 3,6 km/h (1 Bft) 2 min 7,2 km/h (2 Bft)
25.04.2010 14:48 21,6 C 27,5 C 7,1 UV-I 4,1 C 38 % 31 % 100 % 1024,1 hPa 0,0 l/m 4,4 km/h (1 Bft) 2 min 5,2 km/h (1 Bft)
25.04.2010 14:50 21,6 C 27,5 C 9,3 UV-I 4,1 C 38 % 29 % 100 % 1024,1 hPa 0,0 l/m 4,8 km/h (1 Bft) 2 min 6,4 km/h (2 Bft)
25.04.2010 14:52 21,7 C 27,7 C 9,3 UV-I 3,9 C 38 % 29 % 100 % 1023,5 hPa 0,0 l/m 4,0 km/h (1 Bft) 2 min 9,6 km/h (2 Bft)
25.04.2010 14:54 21,7 C 27,6 C 9,3 UV-I 4,0 C 37 % 28 % 100 % 1023,5 hPa 0,0 l/m 4,8 km/h (1 Bft) 2 min 18,5 km/h (3 Bft)
25.04.2010 14:56 21,8 C 27,5 C 7,5 UV-I 3,9 C 37 % 28 % 100 % 1023,5 hPa 0,0 l/m 4,4 km/h (1 Bft) 2 min 0,0 km/h (0 Bft)
25.04.2010 15:00 21,8 C 27,5 C 6,2 UV-I 3,5 C 37 % 28 % 100 % 1023,5 hPa 0,0 l/m 3,6 km/h (1 Bft) 2 min 7,6 km/h (2 Bft)
25.04.2010 15:02 21,8 C 27,6 C 6,2 UV-I 3,2 C 37 % 29 % 91 % 1023,5 hPa 0,0 l/m 3,6 km/h (1 Bft) 2 min 5,6 km/h (1 Bft)
25.04.2010 15:04 21,9 C 27,5 C 6,2 UV-I 3,1 C 37 % 29 % 89 % 1023,5 hPa 0,0 l/m 3,2 km/h (1 Bft) 2 min 0,0 km/h (0 Bft)
25.04.2010 15:06 21,9 C 27,5 C 4,7 UV-I 2,8 C 37 % 28 % 80 % 1023,5 hPa 0,0 l/m 2,0 km/h (1 Bft) 0 min 5,6 km/h (1 Bft)
25.04.2010 15:08 21,9 C 27,5 C 4,7 UV-I 2,4 C 37 % 28 % 69 % 1023,5 hPa 0,0 l/m 2,4 km/h (1 Bft) 0 min 5,2 km/h (1 Bft)
25.04.2010 15:14 21,9 C 27,2 C 3,6 UV-I 1,6 C 37 % 28 % 46 % 1022,6 hPa 0,0 l/m 4,8 km/h (1 Bft) 0 min 16,9 km/h (3 Bft)
25.04.2010 15:16 21,9 C 27,2 C 4,8 UV-I 1,6 C 37 % 28 % 46 % 1022,6 hPa 0,0 l/m 5,6 km/h (1 Bft) 0 min 4,0 km/h (1 Bft)
25.04.2010 15:18 21,9 C 27,1 C 4,8 UV-I 1,7 C 37 % 28 % 49 % 1022,6 hPa 0,0 l/m 6,0 km/h (2 Bft) 0 min 0,0 km/h (0 Bft)
25.04.2010 15:20 21,9 C 27,1 C 4,8 UV-I 1,7 C 37 % 28 % 49 % 1022,6 hPa 0,0 l/m 5,2 km/h (1 Bft) 0 min 0,0 km/h (0 Bft)
25.04.2010 15:22 21,9 C 27,1 C 4,8 UV-I 1,7 C 37 % 28 % 49 % 1022,6 hPa 0,0 l/m 4,0 km/h (1 Bft) 0 min 0,0 km/h (0 Bft)
25.04.2010 15:24 21,9 C 27,2 C 4,8 UV-I 1,4 C 37 % 28 % 40 % 1022,6 hPa 0,0 l/m 3,6 km/h (1 Bft) 0 min 6,0 km/h (2 Bft)
25.04.2010 15:26 21,9 C 27,2 C 3,2 UV-I 1,4 C 37 % 29 % 40 % 1022,6 hPa 0,0 l/m 2,8 km/h (1 Bft) 0 min 5,2 km/h (1 Bft)
25.04.2010 15:28 21,9 C 27,2 C 3,2 UV-I 1,2 C 37 % 28 % 34 % 1022,6 hPa 0,0 l/m 2,4 km/h (1 Bft) 0 min 9,6 km/h (2 Bft)
25.04.2010 15:30 21,9 C 27,1 C 4,1 UV-I 1,2 C 37 % 29 % 34 % 1022,6 hPa 0,0 l/m 2,8 km/h (1 Bft) 0 min 0,0 km/h (0 Bft)
25.04.2010 15:32 21,9 C 27,2 C 4,1 UV-I 1,1 C 37 % 28 % 31 % 1021,9 hPa 0,0 l/m 2,4 km/h (1 Bft) 0 min 0,0 km/h (0 Bft)
25.04.2010 15:34 21,9 C 27,3 C 4,1 UV-I 1,0 C 37 % 29 % 29 % 1021,9 hPa 0,0 l/m 2,4 km/h (1 Bft) 0 min 0,0 km/h (0 Bft)
25.04.2010 15:36 21,9 C 27,2 C 3,8 UV-I 1,2 C 37 % 29 % 34 % 1021,9 hPa 0,0 l/m 2,0 km/h (1 Bft) 0 min 4,4 km/h (1 Bft)
25.04.2010 15:38 21,9 C 27,2 C 3,8 UV-I 1,3 C 37 % 28 % 37 % 1021,9 hPa 0,0 l/m 1,6 km/h (1 Bft) 0 min 6,8 km/h (2 Bft)
25.04.2010 15:40 21,9 C 27,3 C 4,7 UV-I 1,3 C 37 % 29 % 37 % 1021,9 hPa 0,0 l/m 1,2 km/h (1 Bft) 0 min 5,6 km/h (1 Bft)
25.04.2010 15:42 21,9 C 27,2 C 4,7 UV-I 1,6 C 37 % 29 % 46 % 1021,9 hPa 0,0 l/m 1,2 km/h (1 Bft) 0 min 0,0 km/h (0 Bft)
25.04.2010 15:44 21,9 C 27,3 C 4,7 UV-I 1,6 C 37 % 29 % 46 % 1021,9 hPa 0,0 l/m 2,0 km/h (1 Bft) 0 min 0,0 km/h (0 Bft)
25.04.2010 15:46 22,0 C 27,1 C 4,5 UV-I 1,9 C 37 % 28 % 54 % 1021,9 hPa 0,0 l/m 4,0 km/h (1 Bft) 0 min 19,3 km/h (3 Bft)
25.04.2010 15:48 21,9 C 27,0 C 4,5 UV-I 2,0 C 37 % 28 % 57 % 1021,9 hPa 0,0 l/m 4,8 km/h (1 Bft) 0 min 0,0 km/h (0 Bft)
25.04.2010 15:50 21,9 C 26,9 C 5,8 UV-I 2,1 C 37 % 29 % 60 % 1021,9 hPa 0,0 l/m 4,8 km/h (1 Bft) 0 min 0,0 km/h (0 Bft)
25.04.2010 15:52 22,0 C 26,9 C 5,8 UV-I 2,5 C 37 % 28 % 71 % 1022,1 hPa 0,0 l/m 5,6 km/h (1 Bft) 0 min 19,7 km/h (3 Bft)
25.04.2010 15:54 22,0 C 27,0 C 5,8 UV-I 2,5 C 37 % 28 % 71 % 1022,1 hPa 0,0 l/m 5,2 km/h (1 Bft) 0 min 6,8 km/h (2 Bft)
25.04.2010 15:56 22,0 C 26,9 C 6,8 UV-I 2,8 C 37 % 28 % 80 % 1022,1 hPa 0,0 l/m 6,0 km/h (2 Bft) 0 min 14,5 km/h (3 Bft)
25.04.2010 15:58 22,0 C 26,9 C 6,8 UV-I 2,8 C 37 % 28 % 80 % 1022,1 hPa 0,0 l/m 4,4 km/h (1 Bft) 0 min 0,0 km/h (0 Bft)
25.04.2010 16:00 22,0 C 26,9 C 7,2 UV-I 3,0 C 37 % 29 % 86 % 1022,1 hPa 0,0 l/m 4,8 km/h (1 Bft) 2 min 5,6 km/h (1 Bft)
25.04.2010 16:02 22,1 C 26,9 C 7,2 UV-I 3,2 C 37 % 28 % 91 % 1022,1 hPa 0,0 l/m 5,2 km/h (1 Bft) 2 min 11,6 km/h (2 Bft)
25.04.2010 16:04 22,2 C 26,9 C 7,2 UV-I 3,2 C 37 % 28 % 91 % 1022,1 hPa 0,0 l/m 6,0 km/h (2 Bft) 2 min 12,4 km/h (3 Bft)
25.04.2010 16:06 22,2 C 26,9 C 7,1 UV-I 3,3 C 37 % 28 % 94 % 1022,1 hPa 0,0 l/m 5,2 km/h (1 Bft) 2 min 4,0 km/h (1 Bft)
25.04.2010 16:12 22,3 C 26,8 C 6,6 UV-I 3,3 C 37 % 28 % 94 % 1022,6 hPa 0,0 l/m 6,0 km/h (2 Bft) 2 min 8,8 km/h (2 Bft)
25.04.2010 16:14 22,3 C 26,9 C 6,6 UV-I 2,9 C 37 % 28 % 83 % 1022,6 hPa 0,0 l/m 6,0 km/h (2 Bft) 2 min 6,8 km/h (2 Bft)
25.04.2010 16:16 22,2 C 26,8 C 5,0 UV-I 2,9 C 37 % 28 % 83 % 1022,6 hPa 0,0 l/m 6,4 km/h (2 Bft) 2 min 7,2 km/h (2 Bft)
25.04.2010 16:22 22,4 C 26,7 C 4,2 UV-I 2,1 C 37 % 28 % 60 % 1022,6 hPa 0,0 l/m 5,6 km/h (1 Bft) 0 min 7,2 km/h (2 Bft)
25.04.2010 16:28 22,4 C 26,6 C 3,8 UV-I 1,5 C 37 % 27 % 43 % 1022,6 hPa 0,0 l/m 7,6 km/h (2 Bft) 0 min 13,7 km/h (3 Bft)
25.04.2010 16:32 22,2 C 26,5 C 4,2 UV-I 1,3 C 37 % 28 % 37 % 1022,1 hPa 0,0 l/m 7,6 km/h (2 Bft) 0 min 11,2 km/h (2 Bft)
25.04.2010 16:36 22,4 C 26,4 C 3,5 UV-I 1,3 C 37 % 29 % 37 % 1022,1 hPa 0,0 l/m 6,0 km/h (2 Bft) 0 min 8,0 km/h (2 Bft)
25.04.2010 16:38 22,4 C 26,4 C 3,5 UV-I 1,4 C 37 % 28 % 40 % 1022,1 hPa 0,0 l/m 5,2 km/h (1 Bft) 0 min 12,4 km/h (3 Bft)
25.04.2010 16:40 22,4 C 26,4 C 3,5 UV-I 1,3 C 37 % 29 % 37 % 1022,1 hPa 0,0 l/m 3,6 km/h (1 Bft) 0 min 6,4 km/h (2 Bft)
25.04.2010 16:42 22,4 C 26,4 C 3,5 UV-I 1,4 C 37 % 29 % 40 % 1022,1 hPa 0,0 l/m 2,4 km/h (1 Bft) 0 min 0,0 km/h (0 Bft)
25.04.2010 16:44 22,4 C 26,5 C 3,5 UV-I 1,3 C 37 % 29 % 37 % 1022,1 hPa 0,0 l/m 2,0 km/h (1 Bft) 0 min 0,0 km/h (0 Bft)
25.04.2010 16:46 22,4 C 26,5 C 3,0 UV-I 1,3 C 37 % 29 % 37 % 1022,1 hPa 0,0 l/m 2,0 km/h (1 Bft) 0 min 0,0 km/h (0 Bft)
25.04.2010 16:48 22,2 C 26,4 C 3,0 UV-I 1,4 C 37 % 28 % 40 % 1022,1 hPa 0,0 l/m 1,2 km/h (1 Bft) 0 min 0,0 km/h (0 Bft)
25.04.2010 16:50 22,2 C 26,4 C 2,8 UV-I 1,3 C 37 % 28 % 37 % 1022,1 hPa 0,0 l/m 0,8 km/h (0 Bft) 0 min 4,4 km/h (1 Bft)
25.04.2010 16:52 22,2 C 26,3 C 2,8 UV-I 1,4 C 37 % 28 % 40 % 1021,2 hPa 0,0 l/m 1,2 km/h (1 Bft) 0 min 5,2 km/h (1 Bft)
25.04.2010 16:54 22,3 C 26,3 C 2,8 UV-I 1,2 C 37 % 28 % 34 % 1021,2 hPa 0,0 l/m 3,2 km/h (1 Bft) 0 min 15,3 km/h (3 Bft)
25.04.2010 16:56 22,3 C 26,3 C 2,8 UV-I 1,1 C 37 % 28 % 31 % 1021,2 hPa 0,0 l/m 4,0 km/h (1 Bft) 0 min 5,6 km/h (1 Bft)
25.04.2010 16:58 22,3 C 26,3 C 2,8 UV-I 0,9 C 37 % 28 % 26 % 1021,2 hPa 0,0 l/m 4,4 km/h (1 Bft) 0 min 5,6 km/h (1 Bft)
25.04.2010 17:00 22,3 C 26,1 C 2,3 UV-I 1,1 C 37 % 28 % 31 % 1021,2 hPa 0,0 l/m 5,2 km/h (1 Bft) 0 min 10,8 km/h (2 Bft)
25.04.2010 17:02 22,3 C 26,1 C 2,3 UV-I 1,0 C 37 % 28 % 29 % 1021,2 hPa 0,0 l/m 5,6 km/h (1 Bft) 0 min 5,2 km/h (1 Bft)
25.04.2010 17:06 22,2 C 26,1 C 1,7 UV-I 0,8 C 37 % 28 % 23 % 1021,2 hPa 0,0 l/m 4,0 km/h (1 Bft) 0 min 7,6 km/h (2 Bft)
25.04.2010 17:10 22,2 C 26,1 C 1,7 UV-I 0,7 C 37 % 29 % 20 % 1021,2 hPa 0,0 l/m 2,8 km/h (1 Bft) 0 min 0,0 km/h (0 Bft)
25.04.2010 17:12 22,2 C 26,1 C 1,7 UV-I 0,7 C 37 % 29 % 20 % 1020,8 hPa 0,0 l/m 2,4 km/h (1 Bft) 0 min 4,4 km/h (1 Bft)
25.04.2010 17:14 22,2 C 26,0 C 1,7 UV-I 0,8 C 37 % 29 % 23 % 1020,8 hPa 0,0 l/m 1,6 km/h (1 Bft) 0 min 0,0 km/h (0 Bft)
25.04.2010 17:16 22,2 C 26,0 C 2,0 UV-I 0,8 C 37 % 29 % 23 % 1020,8 hPa 0,0 l/m 1,6 km/h (1 Bft) 0 min 4,8 km/h (1 Bft)
25.04.2010 17:18 22,2 C 26,1 C 2,0 UV-I 0,9 C 37 % 28 % 26 % 1020,8 hPa 0,0 l/m 2,0 km/h (1 Bft) 0 min 6,0 km/h (2 Bft)
25.04.2010 17:20 22,1 C 25,9 C 2,8 UV-I 1,3 C 37 % 28 % 37 % 1020,8 hPa 0,0 l/m 2,4 km/h (1 Bft) 0 min 0,0 km/h (0 Bft)
25.04.2010 17:22 22,1 C 26,0 C 2,8 UV-I 1,4 C 37 % 28 % 40 % 1020,8 hPa 0,0 l/m 2,8 km/h (1 Bft) 0 min 7,6 km/h (2 Bft)
25.04.2010 17:24 22,2 C 25,9 C 2,8 UV-I 1,6 C 37 % 28 % 46 % 1020,8 hPa 0,0 l/m 3,6 km/h (1 Bft) 0 min 6,0 km/h (2 Bft)
25.04.2010 17:26 22,2 C 25,9 C 2,4 UV-I 1,6 C 37 % 28 % 46 % 1020,8 hPa 0,0 l/m 3,6 km/h (1 Bft) 0 min 0,0 km/h (0 Bft)
25.04.2010 17:28 22,2 C 26,0 C 2,4 UV-I 1,6 C 37 % 29 % 46 % 1020,8 hPa 0,0 l/m 2,8 km/h (1 Bft) 0 min 0,0 km/h (0 Bft)
25.04.2010 17:32 22,2 C 26,0 C 2,7 UV-I 2,1 C 37 % 28 % 60 % 1021,1 hPa 0,0 l/m 3,2 km/h (1 Bft) 0 min 8,4 km/h (2 Bft)
25.04.2010 17:34 22,2 C 26,0 C 2,7 UV-I 2,2 C 37 % 28 % 63 % 1021,1 hPa 0,0 l/m 2,8 km/h (1 Bft) 0 min 11,2 km/h (2 Bft)
25.04.2010 17:36 22,2 C 26,0 C 2,4 UV-I 2,3 C 37 % 28 % 66 % 1021,1 hPa 0,0 l/m 2,8 km/h (1 Bft) 0 min 4,0 km/h (1 Bft)
25.04.2010 17:38 22,2 C 26,0 C 2,4 UV-I 2,3 C 37 % 29 % 66 % 1021,1 hPa 0,0 l/m 3,2 km/h (1 Bft) 0 min 4,8 km/h (1 Bft)
25.04.2010 17:40 22,2 C 25,9 C 2,6 UV-I 2,5 C 37 % 29 % 71 % 1021,1 hPa 0,0 l/m 2,4 km/h (1 Bft) 0 min 0,0 km/h (0 Bft)
25.04.2010 17:42 22,2 C 26,0 C 2,6 UV-I 2,5 C 37 % 29 % 71 % 1021,1 hPa 0,0 l/m 2,4 km/h (1 Bft) 0 min 0,0 km/h (0 Bft)
25.04.2010 17:44 22,2 C 26,0 C 2,6 UV-I 2,4 C 37 % 29 % 69 % 1021,1 hPa 0,0 l/m 2,4 km/h (1 Bft) 0 min 0,0 km/h (0 Bft)
25.04.2010 17:48 22,2 C 25,9 C 2,0 UV-I 2,6 C 37 % 28 % 74 % 1021,1 hPa 0,0 l/m 2,8 km/h (1 Bft) 0 min 8,0 km/h (2 Bft)
25.04.2010 17:52 22,2 C 25,9 C 2,0 UV-I 2,4 C 37 % 29 % 69 % 1020,9 hPa 0,0 l/m 2,4 km/h (1 Bft) 0 min 4,0 km/h (1 Bft)
25.04.2010 17:54 22,2 C 25,9 C 2,0 UV-I 2,2 C 38 % 29 % 63 % 1020,9 hPa 0,0 l/m 2,4 km/h (1 Bft) 0 min 0,0 km/h (0 Bft)
25.04.2010 17:56 22,2 C 25,9 C 1,8 UV-I 2,2 C 38 % 29 % 63 % 1020,9 hPa 0,0 l/m 2,4 km/h (1 Bft) 0 min 5,6 km/h (1 Bft)
25.04.2010 18:00 22,2 C 25,9 C 1,9 UV-I 2,1 C 37 % 29 % 60 % 1020,9 hPa 0,0 l/m 0,8 km/h (0 Bft) 0 min 0,0 km/h (0 Bft)
25.04.2010 18:02 22,2 C 25,9 C 1,9 UV-I 2,1 C 37 % 29 % 60 % 1020,9 hPa 0,0 l/m 0,4 km/h (0 Bft) 0 min 0,0 km/h (0 Bft)
25.04.2010 18:04 22,1 C 25,9 C 1,9 UV-I 1,9 C 37 % 28 % 54 % 1020,9 hPa 0,0 l/m 1,2 km/h (1 Bft) 0 min 4,8 km/h (1 Bft)
25.04.2010 18:06 22,2 C 25,9 C 1,9 UV-I 1,8 C 37 % 28 % 51 % 1020,9 hPa 0,0 l/m 1,6 km/h (1 Bft) 0 min 5,6 km/h (1 Bft)
25.04.2010 18:08 22,2 C 25,8 C 1,9 UV-I 1,8 C 37 % 28 % 51 % 1020,9 hPa 0,0 l/m 1,6 km/h (1 Bft) 0 min 0,0 km/h (0 Bft)
25.04.2010 18:10 22,2 C 25,8 C 0,7 UV-I 1,7 C 37 % 28 % 49 % 1020,9 hPa 0,0 l/m 2,0 km/h (1 Bft) 0 min 4,0 km/h (1 Bft)
25.04.2010 18:14 22,2 C 25,7 C 0,7 UV-I 1,4 C 37 % 28 % 40 % 1020,9 hPa 0,0 l/m 2,4 km/h (1 Bft) 0 min 6,0 km/h (2 Bft)
25.04.2010 18:16 22,1 C 25,7 C 0,8 UV-I 1,1 C 37 % 28 % 31 % 1020,9 hPa 0,0 l/m 2,0 km/h (1 Bft) 0 min 0,0 km/h (0 Bft)
25.04.2010 18:18 22,1 C 25,6 C 0,8 UV-I 1,0 C 37 % 28 % 29 % 1020,9 hPa 0,0 l/m 2,0 km/h (1 Bft) 0 min 0,0 km/h (0 Bft)
25.04.2010 18:20 22,1 C 25,7 C 0,5 UV-I 0,7 C 37 % 28 % 20 % 1020,9 hPa 0,0 l/m 1,6 km/h (1 Bft) 0 min 0,0 km/h (0 Bft)
25.04.2010 18:22 22,1 C 25,6 C 0,5 UV-I 0,6 C 37 % 28 % 17 % 1020,9 hPa 0,0 l/m 1,2 km/h (1 Bft) 0 min 0,0 km/h (0 Bft)
25.04.2010 18:24 22,1 C 25,6 C 0,5 UV-I 0,4 C 37 % 29 % 11 % 1020,9 hPa 0,0 l/m 0,4 km/h (0 Bft) 0 min 0,0 km/h (0 Bft)
25.04.2010 18:28 22,1 C 25,4 C 0,5 UV-I 0,2 C 37 % 29 % 6 % 1020,9 hPa 0,0 l/m 0,4 km/h (0 Bft) 0 min 0,0 km/h (0 Bft)
25.04.2010 18:30 22,1 C 25,5 C 0,5 UV-I 0,0 C 37 % 28 % 0 % 1020,9 hPa 0,0 l/m 0,4 km/h (0 Bft) 0 min 0,0 km/h (0 Bft)
25.04.2010 18:32 22,1 C 25,5 C 0,5 UV-I 0,0 C 37 % 28 % 0 % 1019,9 hPa 0,0 l/m 0,4 km/h (0 Bft) 0 min 0,0 km/h (0 Bft)
25.04.2010 18:33 22,0 C 25,4 C 0,5 UV-I 0,0 C 37 % 29 % 0 % 1019,9 hPa 0,0 l/m 0,4 km/h (0 Bft) 0 min 0,0 km/h (0 Bft)
25.04.2010 18:37 22,0 C 25,3 C 0,5 UV-I 0,0 C 37 % 29 % 0 % 1019,9 hPa 0,0 l/m 0,0 km/h (0 Bft) 0 min 0,0 km/h (0 Bft)
25.04.2010 18:38 22,0 C 25,3 C 0,5 UV-I 0,0 C 37 % 29 % 0 % 1019,9 hPa 0,0 l/m 0,0 km/h (0 Bft) 0 min 0,0 km/h (0 Bft)
25.04.2010 18:40 22,0 C 25,2 C 0,4 UV-I 0,0 C 37 % 29 % 0 % 1019,9 hPa 0,0 l/m 0,0 km/h (0 Bft) 0 min 0,0 km/h (0 Bft)
25.04.2010 18:42 22,0 C 25,2 C 0,4 UV-I 0,0 C 37 % 29 % 0 % 1019,9 hPa 0,0 l/m 0,0 km/h (0 Bft) 0 min 0,0 km/h (0 Bft)
25.04.2010 18:44 22,0 C 25,2 C 0,4 UV-I 0,0 C 37 % 29 % 0 % 1019,9 hPa 0,0 l/m 0,0 km/h (0 Bft) 0 min 0,0 km/h (0 Bft)
25.04.2010 18:46 22,0 C 25,1 C 0,6 UV-I 0,0 C 37 % 30 % 0 % 1019,9 hPa 0,0 l/m 0,0 km/h (0 Bft) 0 min 0,0 km/h (0 Bft)
25.04.2010 18:48 22,0 C 25,1 C 0,6 UV-I 0,0 C 37 % 29 % 0 % 1019,9 hPa 0,0 l/m 0,4 km/h (0 Bft) 0 min 0,0 km/h (0 Bft)
25.04.2010 18:50 22,0 C 25,1 C 0,2 UV-I 0,0 C 37 % 29 % 0 % 1019,9 hPa 0,0 l/m 0,8 km/h (0 Bft) 0 min 0,0 km/h (0 Bft)
25.04.2010 18:52 22,0 C 24,9 C 0,2 UV-I 0,0 C 37 % 29 % 0 % 1020,1 hPa 0,0 l/m 0,8 km/h (0 Bft) 0 min 0,0 km/h (0 Bft)
25.04.2010 18:54 22,0 C 24,9 C 0,2 UV-I 0,0 C 37 % 30 % 0 % 1020,1 hPa 0,0 l/m 0,8 km/h (0 Bft) 0 min 0,0 km/h (0 Bft)
25.04.2010 18:56 21,9 C 24,8 C 0,2 UV-I 0,0 C 37 % 30 % 0 % 1020,1 hPa 0,0 l/m 0,8 km/h (0 Bft) 0 min 0,0 km/h (0 Bft)
25.04.2010 18:58 21,9 C 24,8 C 0,2 UV-I 0,0 C 37 % 30 % 0 % 1020,1 hPa 0,0 l/m 0,4 km/h (0 Bft) 0 min 0,0 km/h (0 Bft)
25.04.2010 19:00 21,9 C 24,7 C 0,3 UV-I 0,0 C 37 % 30 % 0 % 1020,1 hPa 0,0 l/m 0,0 km/h (0 Bft) 0 min 0,0 km/h (0 Bft)
25.04.2010 19:02 21,9 C 24,6 C 0,3 UV-I 0,0 C 37 % 30 % 0 % 1020,1 hPa 0,0 l/m 0,0 km/h (0 Bft) 0 min 0,0 km/h (0 Bft)
25.04.2010 19:04 21,9 C 24,6 C 0,3 UV-I 0,0 C 37 % 31 % 0 % 1020,1 hPa 0,0 l/m 0,0 km/h (0 Bft) 0 min 0,0 km/h (0 Bft)
25.04.2010 19:06 21,8 C 24,5 C 0,1 UV-I 0,0 C 37 % 31 % 0 % 1020,1 hPa 0,0 l/m 0,0 km/h (0 Bft) 0 min 0,0 km/h (0 Bft)
25.04.2010 19:08 21,8 C 24,4 C 0,1 UV-I 0,0 C 37 % 31 % 0 % 1020,1 hPa 0,0 l/m 0,0 km/h (0 Bft) 0 min 0,0 km/h (0 Bft)
25.04.2010 19:10 21,8 C 24,5 C 0,1 UV-I 0,0 C 37 % 32 % 0 % 1020,1 hPa 0,0 l/m 0,0 km/h (0 Bft) 0 min 0,0 km/h (0 Bft)
25.04.2010 19:12 21,8 C 24,4 C 0,1 UV-I 0,0 C 37 % 33 % 0 % 1020,1 hPa 0,0 l/m 0,0 km/h (0 Bft) 0 min 0,0 km/h (0 Bft)
25.04.2010 19:14 21,8 C 24,3 C 0,1 UV-I 0,0 C 37 % 32 % 0 % 1020,1 hPa 0,0 l/m 0,0 km/h (0 Bft) 0 min 0,0 km/h (0 Bft)
25.04.2010 19:16 21,8 C 24,3 C 0,2 UV-I 0,0 C 37 % 32 % 0 % 1020,1 hPa 0,0 l/m 0,0 km/h (0 Bft) 0 min 0,0 km/h (0 Bft)
25.04.2010 19:20 21,7 C 24,0 C 0,1 UV-I 0,0 C 37 % 32 % 0 % 1020,1 hPa 0,0 l/m 0,0 km/h (0 Bft) 0 min 0,0 km/h (0 Bft)
25.04.2010 19:22 21,7 C 24,1 C 0,1 UV-I 0,0 C 37 % 32 % 0 % 1020,1 hPa 0,0 l/m 0,0 km/h (0 Bft) 0 min 0,0 km/h (0 Bft)
25.04.2010 19:24 21,7 C 23,9 C 0,1 UV-I 0,0 C 37 % 32 % 0 % 1020,1 hPa 0,0 l/m 0,0 km/h (0 Bft) 0 min 0,0 km/h (0 Bft)
25.04.2010 19:26 21,7 C 23,9 C 0,0 UV-I 0,0 C 37 % 33 % 0 % 1020,1 hPa 0,0 l/m 0,0 km/h (0 Bft) 0 min 0,0 km/h (0 Bft)
25.04.2010 19:28 21,7 C 23,9 C 0,0 UV-I 0,0 C 38 % 34 % 0 % 1020,1 hPa 0,0 l/m 0,0 km/h (0 Bft) 0 min 0,0 km/h (0 Bft)
25.04.2010 19:30 21,6 C 23,7 C 0,0 UV-I 0,0 C 38 % 35 % 0 % 1020,1 hPa 0,0 l/m 0,0 km/h (0 Bft) 0 min 0,0 km/h (0 Bft)
25.04.2010 19:32 21,6 C 23,6 C 0,0 UV-I 0,0 C 38 % 34 % 0 % 1020,2 hPa 0,0 l/m 0,4 km/h (0 Bft) 0 min 8,0 km/h (2 Bft)
25.04.2010 19:34 21,6 C 23,6 C 0,0 UV-I 0,0 C 38 % 33 % 0 % 1020,2 hPa 0,0 l/m 1,6 km/h (1 Bft) 0 min 8,0 km/h (2 Bft)
25.04.2010 19:36 21,6 C 23,5 C 0,0 UV-I 0,0 C 38 % 32 % 0 % 1020,2 hPa 0,0 l/m 3,2 km/h (1 Bft) 0 min 4,8 km/h (1 Bft)
25.04.2010 19:38 21,6 C 23,5 C 0,0 UV-I 0,0 C 38 % 32 % 0 % 1020,2 hPa 0,0 l/m 3,6 km/h (1 Bft) 0 min 16,5 km/h (3 Bft)
25.04.2010 19:40 21,6 C 23,4 C 0,0 UV-I 0,0 C 38 % 32 % 0 % 1020,2 hPa 0,0 l/m 4,4 km/h (1 Bft) 0 min 4,4 km/h (1 Bft)
25.04.2010 19:42 21,6 C 23,3 C 0,0 UV-I 0,0 C 38 % 32 % 0 % 1020,2 hPa 0,0 l/m 4,8 km/h (1 Bft) 0 min 0,0 km/h (0 Bft)
25.04.2010 19:44 21,6 C 23,2 C 0,0 UV-I 0,0 C 38 % 32 % 0 % 1020,2 hPa 0,0 l/m 5,2 km/h (1 Bft) 0 min 6,4 km/h (2 Bft)
25.04.2010 19:46 21,6 C 23,3 C 0,0 UV-I 0,0 C 38 % 32 % 0 % 1020,2 hPa 0,0 l/m 4,8 km/h (1 Bft) 0 min 8,4 km/h (2 Bft)
25.04.2010 19:48 21,6 C 23,2 C 0,0 UV-I 0,0 C 38 % 32 % 0 % 1020,2 hPa 0,0 l/m 4,8 km/h (1 Bft) 0 min 0,0 km/h (0 Bft)
25.04.2010 19:50 21,5 C 23,0 C 0,0 UV-I 0,0 C 38 % 32 % 0 % 1020,2 hPa 0,0 l/m 4,4 km/h (1 Bft) 0 min 0,0 km/h (0 Bft)
25.04.2010 19:56 21,5 C 22,8 C 0,0 UV-I 0,0 C 38 % 32 % 0 % 1020,2 hPa 0,0 l/m 4,8 km/h (1 Bft) 0 min 6,8 km/h (2 Bft)
25.04.2010 19:58 21,5 C 22,8 C 0,0 UV-I 0,0 C 38 % 33 % 0 % 1020,2 hPa 0,0 l/m 3,6 km/h (1 Bft) 0 min 0,0 km/h (0 Bft)
25.04.2010 20:00 21,5 C 22,7 C 0,0 UV-I 0,0 C 38 % 33 % 0 % 1020,2 hPa 0,0 l/m 4,4 km/h (1 Bft) 0 min 15,3 km/h (3 Bft)
25.04.2010 20:02 21,4 C 22,6 C 0,0 UV-I 0,0 C 38 % 32 % 0 % 1020,2 hPa 0,0 l/m 5,2 km/h (1 Bft) 0 min 9,2 km/h (2 Bft)
25.04.2010 20:06 21,4 C 22,5 C 0,0 UV-I 0,0 C 38 % 32 % 0 % 1020,2 hPa 0,0 l/m 4,0 km/h (1 Bft) 0 min 20,9 km/h (4 Bft)
25.04.2010 20:08 21,4 C 22,4 C 0,0 UV-I 0,0 C 38 % 32 % 0 % 1020,2 hPa 0,0 l/m 4,0 km/h (1 Bft) 0 min 0,0 km/h (0 Bft)
25.04.2010 20:13 21,4 C 22,3 C 0,0 UV-I 0,0 C 38 % 32 % 0 % 1020,2 hPa 0,0 l/m 3,6 km/h (1 Bft) 0 min 7,6 km/h (2 Bft)
25.04.2010 20:18 21,4 C 22,1 C 0,0 UV-I 0,0 C 38 % 32 % 0 % 1020,2 hPa 0,0 l/m 4,0 km/h (1 Bft) 0 min 7,6 km/h (2 Bft)
25.04.2010 20:20 21,4 C 22,1 C 0,0 UV-I 0,0 C 38 % 32 % 0 % 1020,2 hPa 0,0 l/m 4,0 km/h (1 Bft) 0 min 7,6 km/h (2 Bft)
25.04.2010 20:22 21,2 C 22,0 C 0,0 UV-I 0,0 C 38 % 33 % 0 % 1020,2 hPa 0,0 l/m 4,4 km/h (1 Bft) 0 min 0,0 km/h (0 Bft)
25.04.2010 20:24 21,2 C 22,1 C 0,0 UV-I 0,0 C 38 % 33 % 0 % 1020,2 hPa 0,0 l/m 4,8 km/h (1 Bft) 0 min 7,2 km/h (2 Bft)
25.04.2010 20:26 21,3 C 22,0 C 0,0 UV-I 0,0 C 38 % 33 % 0 % 1020,2 hPa 0,0 l/m 4,4 km/h (1 Bft) 0 min 4,0 km/h (1 Bft)
25.04.2010 20:28 21,3 C 21,9 C 0,0 UV-I 0,0 C 38 % 33 % 0 % 1020,2 hPa 0,0 l/m 4,0 km/h (1 Bft) 0 min 0,0 km/h (0 Bft)
25.04.2010 20:30 21,3 C 21,8 C 0,0 UV-I 0,0 C 38 % 33 % 0 % 1020,2 hPa 0,0 l/m 4,0 km/h (1 Bft) 0 min 6,0 km/h (2 Bft)
25.04.2010 20:32 21,2 C 21,9 C 0,0 UV-I 0,0 C 38 % 33 % 0 % 1020,0 hPa 0,0 l/m 3,2 km/h (1 Bft) 0 min 4,8 km/h (1 Bft)
25.04.2010 20:34 21,2 C 21,8 C 0,0 UV-I 0,0 C 38 % 33 % 0 % 1020,0 hPa 0,0 l/m 4,0 km/h (1 Bft) 0 min 8,4 km/h (2 Bft)
25.04.2010 20:36 21,2 C 21,7 C 0,0 UV-I 0,0 C 38 % 33 % 0 % 1020,0 hPa 0,0 l/m 4,0 km/h (1 Bft) 0 min 8,4 km/h (2 Bft)
25.04.2010 20:38 21,2 C 21,6 C 0,0 UV-I 0,0 C 38 % 33 % 0 % 1020,0 hPa 0,0 l/m 6,0 km/h (2 Bft) 0 min 26,5 km/h (4 Bft)
25.04.2010 20:40 21,2 C 21,6 C 0,0 UV-I 0,0 C 38 % 33 % 0 % 1020,0 hPa 0,0 l/m 6,8 km/h (2 Bft) 0 min 16,9 km/h (3 Bft)
25.04.2010 20:42 21,2 C 21,5 C 0,0 UV-I 0,0 C 38 % 34 % 0 % 1020,0 hPa 0,0 l/m 8,8 km/h (2 Bft) 0 min 19,7 km/h (3 Bft)
25.04.2010 20:44 21,2 C 21,5 C 0,0 UV-I 0,0 C 38 % 34 % 0 % 1020,0 hPa 0,0 l/m 9,2 km/h (2 Bft) 0 min 4,4 km/h (1 Bft)
25.04.2010 20:46 21,2 C 21,5 C 0,0 UV-I 0,0 C 38 % 35 % 0 % 1020,0 hPa 0,0 l/m 9,2 km/h (2 Bft) 0 min 18,1 km/h (3 Bft)
25.04.2010 20:48 21,2 C 21,3 C 0,0 UV-I 0,0 C 38 % 36 % 0 % 1020,0 hPa 0,0 l/m 9,6 km/h (2 Bft) 0 min 12,0 km/h (2 Bft)
25.04.2010 20:50 21,2 C 21,2 C 0,0 UV-I 0,0 C 38 % 37 % 0 % 1020,0 hPa 0,0 l/m 8,8 km/h (2 Bft) 0 min 9,2 km/h (2 Bft)
25.04.2010 20:52 21,1 C 21,1 C 0,0 UV-I 0,0 C 38 % 37 % 0 % 1020,1 hPa 0,0 l/m 8,4 km/h (2 Bft) 0 min 13,7 km/h (3 Bft)
25.04.2010 20:54 21,1 C 21,1 C 0,0 UV-I 0,0 C 38 % 39 % 0 % 1020,1 hPa 0,0 l/m 9,6 km/h (2 Bft) 0 min 18,9 km/h (3 Bft)
25.04.2010 20:56 21,1 C 20,8 C 0,0 UV-I 0,0 C 38 % 40 % 0 % 1020,1 hPa 0,0 l/m 10,0 km/h (2 Bft) 0 min 8,8 km/h (2 Bft)
25.04.2010 20:58 21,1 C 20,7 C 0,0 UV-I 0,0 C 38 % 40 % 0 % 1020,1 hPa 0,0 l/m 9,6 km/h (2 Bft) 0 min 15,3 km/h (3 Bft)
25.04.2010 21:00 21,1 C 20,6 C 0,0 UV-I 0,0 C 38 % 41 % 0 % 1020,1 hPa 0,0 l/m 10,8 km/h (2 Bft) 0 min 13,7 km/h (3 Bft)
25.04.2010 21:02 21,0 C 20,5 C 0,0 UV-I 0,0 C 39 % 41 % 0 % 1020,1 hPa 0,0 l/m 11,2 km/h (2 Bft) 0 min 13,7 km/h (3 Bft)
25.04.2010 21:04 21,0 C 20,4 C 0,0 UV-I 0,0 C 39 % 42 % 0 % 1020,1 hPa 0,0 l/m 11,2 km/h (2 Bft) 0 min 23,3 km/h (4 Bft)
25.04.2010 21:06 21,0 C 20,3 C 0,0 UV-I 0,0 C 39 % 42 % 0 % 1020,1 hPa 0,0 l/m 10,0 km/h (2 Bft) 0 min 17,3 km/h (3 Bft)
25.04.2010 21:08 21,0 C 20,2 C 0,0 UV-I 0,0 C 39 % 42 % 0 % 1020,1 hPa 0,0 l/m 10,0 km/h (2 Bft) 0 min 7,6 km/h (2 Bft)
25.04.2010 21:10 21,0 C 20,3 C 0,0 UV-I 0,0 C 39 % 42 % 0 % 1020,1 hPa 0,0 l/m 8,8 km/h (2 Bft) 0 min 34,9 km/h (5 Bft)
25.04.2010 21:12 21,0 C 20,1 C 0,0 UV-I 0,0 C 39 % 43 % 0 % 1021,0 hPa 0,0 l/m 8,4 km/h (2 Bft) 0 min 20,1 km/h (4 Bft)
25.04.2010 21:14 21,0 C 20,0 C 0,0 UV-I 0,0 C 39 % 43 % 0 % 1021,0 hPa 0,0 l/m 8,0 km/h (2 Bft) 0 min 4,0 km/h (1 Bft)
25.04.2010 21:16 21,0 C 19,9 C 0,0 UV-I 0,0 C 39 % 44 % 0 % 1021,0 hPa 0,0 l/m 7,2 km/h (2 Bft) 0 min 17,7 km/h (3 Bft)
25.04.2010 21:18 20,9 C 19,9 C 0,0 UV-I 0,0 C 39 % 44 % 0 % 1021,0 hPa 0,0 l/m 8,4 km/h (2 Bft) 0 min 9,2 km/h (2 Bft)
25.04.2010 21:20 20,9 C 19,8 C 0,0 UV-I 0,0 C 39 % 44 % 0 % 1021,0 hPa 0,0 l/m 9,2 km/h (2 Bft) 0 min 7,2 km/h (2 Bft)
25.04.2010 21:22 20,9 C 19,7 C 0,0 UV-I 0,0 C 39 % 45 % 0 % 1021,0 hPa 0,0 l/m 10,4 km/h (2 Bft) 0 min 10,4 km/h (2 Bft)
25.04.2010 21:24 20,9 C 19,6 C 0,0 UV-I 0,0 C 39 % 45 % 0 % 1021,0 hPa 0,0 l/m 10,0 km/h (2 Bft) 0 min 12,0 km/h (2 Bft)
25.04.2010 21:26 20,9 C 19,5 C 0,0 UV-I 0,0 C 39 % 45 % 0 % 1021,0 hPa 0,0 l/m 10,4 km/h (2 Bft) 0 min 10,4 km/h (2 Bft)
25.04.2010 21:28 20,9 C 19,5 C 0,0 UV-I 0,0 C 39 % 46 % 0 % 1021,0 hPa 0,0 l/m 10,0 km/h (2 Bft) 0 min 26,1 km/h (4 Bft)
25.04.2010 21:30 20,8 C 19,3 C 0,0 UV-I 0,0 C 39 % 46 % 0 % 1021,0 hPa 0,0 l/m 9,2 km/h (2 Bft) 0 min 10,0 km/h (2 Bft)
25.04.2010 21:32 20,8 C 19,2 C 0,0 UV-I 0,0 C 39 % 47 % 0 % 1021,2 hPa 0,0 l/m 8,4 km/h (2 Bft) 0 min 13,3 km/h (3 Bft)
25.04.2010 21:34 20,8 C 19,2 C 0,0 UV-I 0,0 C 39 % 47 % 0 % 1021,2 hPa 0,0 l/m 9,2 km/h (2 Bft) 0 min 13,7 km/h (3 Bft)
25.04.2010 21:36 20,8 C 19,1 C 0,0 UV-I 0,0 C 39 % 48 % 0 % 1021,2 hPa 0,0 l/m 10,4 km/h (2 Bft) 0 min 32,5 km/h (5 Bft)
25.04.2010 21:38 20,8 C 19,0 C 0,0 UV-I 0,0 C 39 % 48 % 0 % 1021,2 hPa 0,0 l/m 10,4 km/h (2 Bft) 0 min 15,3 km/h (3 Bft)
25.04.2010 21:40 20,8 C 19,1 C 0,0 UV-I 0,0 C 40 % 48 % 0 % 1021,2 hPa 0,0 l/m 10,0 km/h (2 Bft) 0 min 15,7 km/h (3 Bft)
25.04.2010 21:42 20,8 C 18,9 C 0,0 UV-I 0,0 C 40 % 48 % 0 % 1021,2 hPa 0,0 l/m 10,0 km/h (2 Bft) 0 min 7,2 km/h (2 Bft)
25.04.2010 21:44 20,8 C 18,8 C 0,0 UV-I 0,0 C 40 % 48 % 0 % 1021,2 hPa 0,0 l/m 9,2 km/h (2 Bft) 0 min 17,7 km/h (3 Bft)
25.04.2010 21:46 20,8 C 18,8 C 0,0 UV-I 0,0 C 40 % 49 % 0 % 1021,2 hPa 0,0 l/m 9,6 km/h (2 Bft) 0 min 24,1 km/h (4 Bft)
25.04.2010 21:48 20,8 C 18,7 C 0,0 UV-I 0,0 C 40 % 49 % 0 % 1021,2 hPa 0,0 l/m 8,8 km/h (2 Bft) 0 min 17,3 km/h (3 Bft)
25.04.2010 21:52 20,7 C 18,5 C 0,0 UV-I 0,0 C 40 % 49 % 0 % 1021,7 hPa 0,0 l/m 10,4 km/h (2 Bft) 0 min 25,7 km/h (4 Bft)
25.04.2010 21:54 20,7 C 18,5 C 0,0 UV-I 0,0 C 40 % 49 % 0 % 1021,7 hPa 0,0 l/m 11,6 km/h (2 Bft) 0 min 20,9 km/h (4 Bft)
25.04.2010 21:56 20,7 C 18,3 C 0,0 UV-I 0,0 C 40 % 48 % 0 % 1021,7 hPa 0,0 l/m 13,7 km/h (3 Bft) 0 min 31,7 km/h (5 Bft)
25.04.2010 21:58 20,7 C 18,3 C 0,0 UV-I 0,0 C 40 % 48 % 0 % 1021,7 hPa 0,0 l/m 13,7 km/h (3 Bft) 0 min 6,0 km/h (2 Bft)
25.04.2010 22:00 20,7 C 18,1 C 0,0 UV-I 0,0 C 40 % 48 % 0 % 1021,7 hPa 0,0 l/m 13,7 km/h (3 Bft) 0 min 26,1 km/h (4 Bft)
25.04.2010 22:02 20,7 C 18,0 C 0,0 UV-I 0,0 C 40 % 49 % 0 % 1021,7 hPa 0,0 l/m 13,7 km/h (3 Bft) 0 min 32,5 km/h (5 Bft)
25.04.2010 22:04 20,7 C 18,0 C 0,0 UV-I 0,0 C 40 % 49 % 0 % 1021,7 hPa 0,0 l/m 13,7 km/h (3 Bft) 0 min 8,8 km/h (2 Bft)
25.04.2010 22:06 20,6 C 17,9 C 0,0 UV-I 0,0 C 40 % 49 % 0 % 1021,7 hPa 0,0 l/m 14,1 km/h (3 Bft) 0 min 11,6 km/h (2 Bft)
25.04.2010 22:08 20,6 C 17,9 C 0,0 UV-I 0,0 C 40 % 49 % 0 % 1021,7 hPa 0,0 l/m 12,4 km/h (3 Bft) 0 min 15,3 km/h (3 Bft)
25.04.2010 22:10 20,6 C 17,7 C 0,0 UV-I 0,0 C 40 % 50 % 0 % 1021,7 hPa 0,0 l/m 12,8 km/h (3 Bft) 0 min 45,0 km/h (6 Bft)
25.04.2010 22:16 20,6 C 17,5 C 0,0 UV-I 0,0 C 40 % 51 % 0 % 1022,8 hPa 0,0 l/m 11,2 km/h (2 Bft) 0 min 34,5 km/h (5 Bft)
25.04.2010 22:18 20,6 C 17,5 C 0,0 UV-I 0,0 C 40 % 51 % 0 % 1022,8 hPa 0,0 l/m 12,8 km/h (3 Bft) 0 min 47,8 km/h (6 Bft)
25.04.2010 22:20 20,6 C 17,4 C 0,0 UV-I 0,0 C 40 % 52 % 0 % 1022,8 hPa 0,0 l/m 13,3 km/h (3 Bft) 0 min 47,8 km/h (6 Bft)
25.04.2010 22:22 20,6 C 17,3 C 0,0 UV-I 0,0 C 40 % 52 % 0 % 1022,8 hPa 0,0 l/m 14,5 km/h (3 Bft) 0 min 30,1 km/h (5 Bft)
25.04.2010 22:24 20,6 C 17,3 C 0,0 UV-I 0,0 C 40 % 53 % 0 % 1022,8 hPa 0,0 l/m 13,7 km/h (3 Bft) 0 min 18,5 km/h (3 Bft)
25.04.2010 22:26 20,5 C 17,1 C 0,0 UV-I 0,0 C 41 % 55 % 0 % 1022,8 hPa 0,0 l/m 14,5 km/h (3 Bft) 0 min 14,1 km/h (3 Bft)
25.04.2010 22:28 20,5 C 17,1 C 0,0 UV-I 0,0 C 41 % 55 % 0 % 1022,8 hPa 0,0 l/m 14,5 km/h (3 Bft) 0 min 11,2 km/h (2 Bft)
25.04.2010 22:30 20,5 C 17,0 C 0,0 UV-I 0,0 C 41 % 56 % 0 % 1022,8 hPa 0,0 l/m 13,3 km/h (3 Bft) 0 min 14,9 km/h (3 Bft)
25.04.2010 22:32 20,5 C 16,9 C 0,0 UV-I 0,0 C 41 % 58 % 0 % 1023,1 hPa 0,0 l/m 14,1 km/h (3 Bft) 0 min 26,5 km/h (4 Bft)
25.04.2010 22:34 20,5 C 16,8 C 0,0 UV-I 0,0 C 41 % 59 % 0 % 1023,1 hPa 0,0 l/m 14,5 km/h (3 Bft) 0 min 31,7 km/h (5 Bft)
25.04.2010 22:36 20,5 C 16,7 C 0,0 UV-I 0,0 C 41 % 60 % 0 % 1023,1 hPa 0,0 l/m 14,1 km/h (3 Bft) 0 min 13,7 km/h (3 Bft)
25.04.2010 22:38 20,4 C 16,7 C 0,0 UV-I 0,0 C 41 % 60 % 0 % 1023,1 hPa 0,0 l/m 14,1 km/h (3 Bft) 0 min 13,3 km/h (3 Bft)
25.04.2010 22:42 20,4 C 16,4 C 0,0 UV-I 0,0 C 41 % 61 % 0 % 1023,1 hPa 0,0 l/m 13,3 km/h (3 Bft) 0 min 7,2 km/h (2 Bft)
25.04.2010 22:44 20,4 C 16,4 C 0,0 UV-I 0,0 C 41 % 61 % 0 % 1023,1 hPa 0,0 l/m 11,6 km/h (2 Bft) 0 min 6,0 km/h (2 Bft)
25.04.2010 22:46 20,4 C 16,3 C 0,0 UV-I 0,0 C 41 % 61 % 0 % 1023,1 hPa 0,0 l/m 10,0 km/h (2 Bft) 0 min 7,2 km/h (2 Bft)
25.04.2010 22:48 20,4 C 16,3 C 0,0 UV-I 0,0 C 41 % 61 % 0 % 1023,1 hPa 0,0 l/m 7,2 km/h (2 Bft) 0 min 4,0 km/h (1 Bft)
25.04.2010 22:50 20,4 C 16,3 C 0,0 UV-I 0,0 C 41 % 61 % 0 % 1023,1 hPa 0,0 l/m 6,4 km/h (2 Bft) 0 min 5,6 km/h (1 Bft)
25.04.2010 22:52 20,4 C 16,2 C 0,0 UV-I 0,0 C 42 % 62 % 0 % 1023,5 hPa 0,0 l/m 6,4 km/h (2 Bft) 0 min 16,9 km/h (3 Bft)
25.04.2010 22:54 20,4 C 16,1 C 0,0 UV-I 0,0 C 42 % 62 % 0 % 1023,5 hPa 0,0 l/m 5,6 km/h (1 Bft) 0 min 9,6 km/h (2 Bft)
25.04.2010 22:56 20,4 C 16,0 C 0,0 UV-I 0,0 C 42 % 62 % 0 % 1023,5 hPa 0,0 l/m 5,2 km/h (1 Bft) 0 min 9,6 km/h (2 Bft)
25.04.2010 22:58 20,4 C 16,1 C 0,0 UV-I 0,0 C 42 % 62 % 0 % 1023,5 hPa 0,0 l/m 5,6 km/h (1 Bft) 0 min 6,0 km/h (2 Bft)
25.04.2010 23:00 20,4 C 16,1 C 0,0 UV-I 0,0 C 42 % 63 % 0 % 1023,5 hPa 0,0 l/m 5,6 km/h (1 Bft) 0 min 0,0 km/h (0 Bft)
25.04.2010 23:02 20,4 C 15,9 C 0,0 UV-I 0,0 C 42 % 63 % 0 % 1023,5 hPa 0,0 l/m 4,8 km/h (1 Bft) 0 min 5,6 km/h (1 Bft)
25.04.2010 23:04 20,2 C 15,9 C 0,0 UV-I 0,0 C 42 % 63 % 0 % 1023,5 hPa 0,0 l/m 4,4 km/h (1 Bft) 0 min 9,2 km/h (2 Bft)
25.04.2010 23:06 20,2 C 15,9 C 0,0 UV-I 0,0 C 42 % 63 % 0 % 1023,5 hPa 0,0 l/m 5,6 km/h (1 Bft) 0 min 7,6 km/h (2 Bft)
25.04.2010 23:08 20,2 C 15,9 C 0,0 UV-I 0,0 C 42 % 63 % 0 % 1023,5 hPa 0,0 l/m 6,0 km/h (2 Bft) 0 min 5,6 km/h (1 Bft)
25.04.2010 23:10 20,2 C 15,9 C 0,0 UV-I 0,0 C 42 % 63 % 0 % 1023,5 hPa 0,0 l/m 6,4 km/h (2 Bft) 0 min 5,2 km/h (1 Bft)
25.04.2010 23:12 20,3 C 15,7 C 0,0 UV-I 0,0 C 42 % 63 % 0 % 1023,4 hPa 0,0 l/m 6,4 km/h (2 Bft) 0 min 12,4 km/h (3 Bft)
25.04.2010 23:14 20,3 C 15,7 C 0,0 UV-I 0,0 C 42 % 64 % 0 % 1023,4 hPa 0,0 l/m 6,8 km/h (2 Bft) 0 min 14,1 km/h (3 Bft)
25.04.2010 23:16 20,3 C 15,6 C 0,0 UV-I 0,0 C 42 % 64 % 0 % 1023,4 hPa 0,0 l/m 5,6 km/h (1 Bft) 0 min 4,4 km/h (1 Bft)
25.04.2010 23:18 20,3 C 15,7 C 0,0 UV-I 0,0 C 42 % 65 % 0 % 1023,4 hPa 0,0 l/m 4,8 km/h (1 Bft) 0 min 17,7 km/h (3 Bft)
25.04.2010 23:20 20,3 C 15,6 C 0,0 UV-I 0,0 C 42 % 65 % 0 % 1023,4 hPa 0,0 l/m 5,2 km/h (1 Bft) 0 min 24,1 km/h (4 Bft)
25.04.2010 23:22 20,2 C 15,5 C 0,0 UV-I 0,0 C 42 % 65 % 0 % 1023,4 hPa 0,0 l/m 6,0 km/h (2 Bft) 0 min 9,6 km/h (2 Bft)
25.04.2010 23:24 20,3 C 15,5 C 0,0 UV-I 0,0 C 42 % 65 % 0 % 1023,4 hPa 0,0 l/m 7,6 km/h (2 Bft) 0 min 17,3 km/h (3 Bft)
25.04.2010 23:26 20,2 C 15,5 C 0,0 UV-I 0,0 C 42 % 66 % 0 % 1023,4 hPa 0,0 l/m 7,2 km/h (2 Bft) 0 min 8,8 km/h (2 Bft)
25.04.2010 23:28 20,2 C 15,5 C 0,0 UV-I 0,0 C 42 % 66 % 0 % 1023,4 hPa 0,0 l/m 7,6 km/h (2 Bft) 0 min 11,2 km/h (2 Bft)
25.04.2010 23:32 20,2 C 15,3 C 0,0 UV-I 0,0 C 43 % 67 % 0 % 1023,2 hPa 0,0 l/m 7,2 km/h (2 Bft) 0 min 8,0 km/h (2 Bft)
25.04.2010 23:34 20,2 C 15,3 C 0,0 UV-I 0,0 C 43 % 67 % 0 % 1023,2 hPa 0,0 l/m 6,4 km/h (2 Bft) 0 min 4,0 km/h (1 Bft)
25.04.2010 23:36 20,2 C 15,2 C 0,0 UV-I 0,0 C 43 % 68 % 0 % 1023,2 hPa 0,0 l/m 5,6 km/h (1 Bft) 0 min 8,4 km/h (2 Bft)
25.04.2010 23:38 20,2 C 15,2 C 0,0 UV-I 0,0 C 43 % 68 % 0 % 1023,2 hPa 0,0 l/m 5,2 km/h (1 Bft) 0 min 18,9 km/h (3 Bft)
25.04.2010 23:40 20,2 C 15,1 C 0,0 UV-I 0,0 C 43 % 69 % 0 % 1023,2 hPa 0,0 l/m 4,8 km/h (1 Bft) 0 min 0,0 km/h (0 Bft)
25.04.2010 23:42 20,2 C 15,1 C 0,0 UV-I 0,0 C 43 % 70 % 0 % 1023,2 hPa 0,0 l/m 4,0 km/h (1 Bft) 0 min 0,0 km/h (0 Bft)
25.04.2010 23:44 20,2 C 15,1 C 0,0 UV-I 0,0 C 43 % 70 % 0 % 1023,2 hPa 0,0 l/m 4,0 km/h (1 Bft) 0 min 8,8 km/h (2 Bft)
25.04.2010 23:46 20,2 C 15,0 C 0,0 UV-I 0,0 C 43 % 70 % 0 % 1023,2 hPa 0,0 l/m 4,4 km/h (1 Bft) 0 min 15,3 km/h (3 Bft)
25.04.2010 23:48 20,2 C 14,9 C 0,0 UV-I 0,0 C 43 % 70 % 0 % 1023,2 hPa 0,0 l/m 4,8 km/h (1 Bft) 0 min 0,0 km/h (0 Bft)
25.04.2010 23:50 20,1 C 14,9 C 0,0 UV-I 0,0 C 43 % 71 % 0 % 1023,2 hPa 0,0 l/m 4,0 km/h (1 Bft) 0 min 8,0 km/h (2 Bft)
25.04.2010 23:52 20,1 C 14,8 C 0,0 UV-I 0,0 C 43 % 72 % 0 % 1023,9 hPa 0,0 l/m 4,8 km/h (1 Bft) 0 min 7,6 km/h (2 Bft)
25.04.2010 23:54 20,1 C 14,9 C 0,0 UV-I 0,0 C 43 % 72 % 0 % 1023,9 hPa 0,0 l/m 4,8 km/h (1 Bft) 0 min 8,4 km/h (2 Bft)
25.04.2010 23:56 20,1 C 14,8 C 0,0 UV-I 0,0 C 43 % 72 % 0 % 1023,9 hPa 0,0 l/m 4,0 km/h (1 Bft) 0 min 7,2 km/h (2 Bft)
25.04.2010 23:58 20,1 C 14,7 C 0,0 UV-I 0,0 C 43 % 73 % 0 % 1023,9 hPa 0,0 l/m 3,2 km/h (1 Bft) 0 min 0,0 km/h (0 Bft)
_ Min-Zeit 06:12 03:52 00:00 00:00 14:54 16:28 00:00 18:32 - 00:00 - 00:00
Minimum _ 17,6 C 7,0 C 0,0 UV-I 0,0 C 37 % 27 % 0 % 1019,9 hPa - 0,0 km/h (0 Bft) - 0,0 km/h (0 Bft)
_ Max-Zeit 16:22 14:52 14:36 13:54 23:32 03:38 09:48 14:32 00:00 22:22 09:46 22:18
Maximum _ 22,4 C 27,7 C 12,1 UV-I 7,2 C 43 % 74 % 100 % 1024,1 hPa 0,0 l/m 14,5 km/h
W (3 Bft)
2 min 47,8 km/h
W-SW (6 Bft)
Durchschnitt _ 19,6 C 16,9 C 1,9 UV-I 1,4 C 40 % 50 % 30 % 1021,4 hPa #0,0 l/m 4,9 km/h (1 Bft) #4:28 h 7,6 km/h (2 Bft)
© 2012 W. Hausmann